Niobrara River (Nebraska), Mariaville (06463720)

StateNebraskaLatestGood (1680 cfs)
RiverNiobrara RiverRatingObservedEstimated
Updated2026-05-10 11:45 (23 minutes ago)Flood - The river is flooding. Obstacles can be treacherous or deadly. The river should be avoided at this stage for casual trips and definitely for the inexperienced. Trips should be attempted only with protective gear and equipment.Flood(none)3275
Discharge1680 cfs (median: 1780 cfs)High - The river is high and potentially dangerous, especially for the young and / or inexperienced. Normal stream obstacles are sometimes difficult to navigate. Extended distances can be attempted, but canoe travel may not be advisable.High(none)1772
Height3.26 feetGood - Conditions are ideal for a canoe or kayak. Boats typically will drag on fewer than one-quarter of riffles, if at all, and portages are unnecessary or rare. Normal float lengths can be attempted without a problem.Good(none)1556
TrendSteady (falling over 24 hours)Low - River is low but can still be floated. Some riffles are okay but most come with significant dragging and might need a portage. Float lengths should be reduced to accommodate low flow, dragging, and portages.Low(none)1243
USGSExternal icon USGS Site (External icon Duck Duck Go Maps)Poor - River is too low to float comfortably. Most or all riffles will drag or must be portaged and some obstacles (such as slick shelf rock) cause undue problems. Avoid the river at this stage for casual paddling trips.Poor(none)749

Trending Data

Plot Image

Trips for Niobrara River (Nebraska), Mariaville (06463720)

DateStartEndDistanceConditionDischargeHeightFishingDetails

A total of 0 rows are displayed.

Condition Descriptions

Fishing Conditions

Fish Species

Notes

Classic Trip List

The classic River Trips application is still available for use. It is updated with the new system using a data retrofit. It is no longer maintained. The original River Trips application is no longer updated (as of 1 Dec 2016) but can be checked for errors or for the condition of the data before it was converted to the new system.

Gauge Data Table

ObservationHeightDischargeMaximum
Discharge
Minimum
Discharge
Mean
Discharge
P05P10P20P25P50
(Median)
P75P80P90P95
2026-05-10 11:45 3.26 1680 2860 (2019) 1340 (2025) 1890 1360 1530 1570 1780 2170 2330 2780
2026-05-10 10:45 3.25 1680 2860 (2019) 1340 (2025) 1890 1360 1530 1570 1780 2170 2330 2780
2026-05-10 09:45 3.23 1660 2860 (2019) 1340 (2025) 1890 1360 1530 1570 1780 2170 2330 2780
2026-05-10 08:45 3.23 1660 2860 (2019) 1340 (2025) 1890 1360 1530 1570 1780 2170 2330 2780
2026-05-10 07:45 3.22 1650 2860 (2019) 1340 (2025) 1890 1360 1530 1570 1780 2170 2330 2780
2026-05-10 06:45 3.19 1630 2860 (2019) 1340 (2025) 1890 1360 1530 1570 1780 2170 2330 2780
2026-05-10 05:45 3.13 1580 2860 (2019) 1340 (2025) 1890 1360 1530 1570 1780 2170 2330 2780
2026-05-10 04:45 3.20 1630 2860 (2019) 1340 (2025) 1890 1360 1530 1570 1780 2170 2330 2780
2026-05-10 03:45 3.22 1650 2860 (2019) 1340 (2025) 1890 1360 1530 1570 1780 2170 2330 2780
2026-05-10 02:45 3.23 1660 2860 (2019) 1340 (2025) 1890 1360 1530 1570 1780 2170 2330 2780
2026-05-10 01:45 3.23 1660 2860 (2019) 1340 (2025) 1890 1360 1530 1570 1780 2170 2330 2780
2026-05-10 00:45 3.21 1640 2860 (2019) 1340 (2025) 1890 1360 1530 1570 1780 2170 2330 2780
2026-05-09 23:45 3.22 1650 2860 (2019) 1340 (2025) 1890 1360 1530 1570 1780 2170 2330 2780
2026-05-09 22:45 3.22 1650 2940 (2019) 1380 (2025) 1960 1380 1540 1590 1820 2420 2590 2840
2026-05-09 21:45 3.25 1680 2940 (2019) 1380 (2025) 1960 1380 1540 1590 1820 2420 2590 2840
2026-05-09 20:45 3.25 1680 2940 (2019) 1380 (2025) 1960 1380 1540 1590 1820 2420 2590 2840
2026-05-09 19:45 3.24 1670 2940 (2019) 1380 (2025) 1960 1380 1540 1590 1820 2420 2590 2840
2026-05-09 18:45 3.25 1680 2940 (2019) 1380 (2025) 1960 1380 1540 1590 1820 2420 2590 2840
2026-05-09 17:45 3.27 1690 2940 (2019) 1380 (2025) 1960 1380 1540 1590 1820 2420 2590 2840
2026-05-09 16:45 3.27 1690 2940 (2019) 1380 (2025) 1960 1380 1540 1590 1820 2420 2590 2840
2026-05-09 15:45 3.31 1720 2940 (2019) 1380 (2025) 1960 1380 1540 1590 1820 2420 2590 2840
2026-05-09 14:45 3.28 1700 2940 (2019) 1380 (2025) 1960 1380 1540 1590 1820 2420 2590 2840
2026-05-09 13:45 3.27 1690 2940 (2019) 1380 (2025) 1960 1380 1540 1590 1820 2420 2590 2840
2026-05-09 12:45 3.31 1720 2940 (2019) 1380 (2025) 1960 1380 1540 1590 1820 2420 2590 2840
2026-05-09 11:45 3.28 1700 2940 (2019) 1380 (2025) 1960 1380 1540 1590 1820 2420 2590 2840
2026-05-09 10:45 3.28 1700 2940 (2019) 1380 (2025) 1960 1380 1540 1590 1820 2420 2590 2840
2026-05-09 09:45 3.27 1690 2940 (2019) 1380 (2025) 1960 1380 1540 1590 1820 2420 2590 2840
2026-05-09 08:45 3.21 1640 2940 (2019) 1380 (2025) 1960 1380 1540 1590 1820 2420 2590 2840
2026-05-09 07:45 3.15 1600 2940 (2019) 1380 (2025) 1960 1380 1540 1590 1820 2420 2590 2840
2026-05-09 06:45 3.19 1630 2940 (2019) 1380 (2025) 1960 1380 1540 1590 1820 2420 2590 2840
2026-05-09 05:45 3.16 1600 2940 (2019) 1380 (2025) 1960 1380 1540 1590 1820 2420 2590 2840
2026-05-09 04:45 3.22 1650 2940 (2019) 1380 (2025) 1960 1380 1540 1590 1820 2420 2590 2840
2026-05-09 03:45 3.24 1670 2940 (2019) 1380 (2025) 1960 1380 1540 1590 1820 2420 2590 2840
2026-05-09 02:45 3.23 1660 2940 (2019) 1380 (2025) 1960 1380 1540 1590 1820 2420 2590 2840
2026-05-09 01:45 3.25 1680 2940 (2019) 1380 (2025) 1960 1380 1540 1590 1820 2420 2590 2840
2026-05-09 00:45 3.21 1640 2940 (2019) 1380 (2025) 1960 1380 1540 1590 1820 2420 2590 2840
2026-05-08 23:45 3.13 1580 2940 (2019) 1380 (2025) 1960 1380 1540 1590 1820 2420 2590 2840
2026-05-08 22:45 3.12 1570 3030 (2020) 1410 (2025) 1940 1420 1530 1550 1820 2350 2440 2840
2026-05-08 21:45 3.05 1520 3030 (2020) 1410 (2025) 1940 1420 1530 1550 1820 2350 2440 2840
2026-05-08 20:45 2.96 1350 3030 (2020) 1410 (2025) 1940 1420 1530 1550 1820 2350 2440 2840
2026-05-08 19:45 3.01 1490 3030 (2020) 1410 (2025) 1940 1420 1530 1550 1820 2350 2440 2840
2026-05-08 18:45 3.01 1490 3030 (2020) 1410 (2025) 1940 1420 1530 1550 1820 2350 2440 2840
2026-05-08 17:45 3.07 1530 3030 (2020) 1410 (2025) 1940 1420 1530 1550 1820 2350 2440 2840
2026-05-08 16:45 3.02 1500 3030 (2020) 1410 (2025) 1940 1420 1530 1550 1820 2350 2440 2840
2026-05-08 15:45 2.98 1410 3030 (2020) 1410 (2025) 1940 1420 1530 1550 1820 2350 2440 2840
2026-05-08 14:45 3.02 1500 3030 (2020) 1410 (2025) 1940 1420 1530 1550 1820 2350 2440 2840
2026-05-08 13:45 3.00 1480 3030 (2020) 1410 (2025) 1940 1420 1530 1550 1820 2350 2440 2840
2026-05-08 12:45 2.97 1380 3030 (2020) 1410 (2025) 1940 1420 1530 1550 1820 2350 2440 2840
2026-05-08 11:45 3.06 1530 3030 (2020) 1410 (2025) 1940 1420 1530 1550 1820 2350 2440 2840
2026-05-08 10:45 3.03 1500 3030 (2020) 1410 (2025) 1940 1420 1530 1550 1820 2350 2440 2840
2026-05-08 09:45 3.04 1510 3030 (2020) 1410 (2025) 1940 1420 1530 1550 1820 2350 2440 2840
2026-05-08 08:45 3.15 1600 3030 (2020) 1410 (2025) 1940 1420 1530 1550 1820 2350 2440 2840
2026-05-08 07:45 3.08 1540 3030 (2020) 1410 (2025) 1940 1420 1530 1550 1820 2350 2440 2840
2026-05-08 06:45 3.12 1570 3030 (2020) 1410 (2025) 1940 1420 1530 1550 1820 2350 2440 2840
2026-05-08 05:45 3.12 1570 3030 (2020) 1410 (2025) 1940 1420 1530 1550 1820 2350 2440 2840
2026-05-08 04:45 3.14 1590 3030 (2020) 1410 (2025) 1940 1420 1530 1550 1820 2350 2440 2840
2026-05-08 03:45 3.19 1630 3030 (2020) 1410 (2025) 1940 1420 1530 1550 1820 2350 2440 2840
2026-05-08 02:45 3.11 1560 3030 (2020) 1410 (2025) 1940 1420 1530 1550 1820 2350 2440 2840
2026-05-08 01:45 3.13 1580 3030 (2020) 1410 (2025) 1940 1420 1530 1550 1820 2350 2440 2840
2026-05-08 00:45 3.14 1590 3030 (2020) 1410 (2025) 1940 1420 1530 1550 1820 2350 2440 2840
2026-05-07 23:45 3.14 1590 3030 (2020) 1410 (2025) 1940 1420 1530 1550 1820 2350 2440 2840
2026-05-07 22:45 3.12 1570 2930 (2020) 1360 (2013) 1870 1380 1430 1460 1880 2150 2190 2690
2026-05-07 21:45 3.10 1560 2930 (2020) 1360 (2013) 1870 1380 1430 1460 1880 2150 2190 2690
2026-05-07 20:45 3.09 1550 2930 (2020) 1360 (2013) 1870 1380 1430 1460 1880 2150 2190 2690
2026-05-07 19:45 3.10 1560 2930 (2020) 1360 (2013) 1870 1380 1430 1460 1880 2150 2190 2690
2026-05-07 18:45 3.10 1560 2930 (2020) 1360 (2013) 1870 1380 1430 1460 1880 2150 2190 2690
2026-05-07 17:45 3.11 1560 2930 (2020) 1360 (2013) 1870 1380 1430 1460 1880 2150 2190 2690
2026-05-07 16:45 3.14 1590 2930 (2020) 1360 (2013) 1870 1380 1430 1460 1880 2150 2190 2690
2026-05-07 15:45 3.13 1580 2930 (2020) 1360 (2013) 1870 1380 1430 1460 1880 2150 2190 2690
2026-05-07 14:45 3.15 1600 2930 (2020) 1360 (2013) 1870 1380 1430 1460 1880 2150 2190 2690
2026-05-07 13:45 3.17 1610 2930 (2020) 1360 (2013) 1870 1380 1430 1460 1880 2150 2190 2690
2026-05-07 12:45 3.14 1590 2930 (2020) 1360 (2013) 1870 1380 1430 1460 1880 2150 2190 2690
2026-05-07 11:45 3.14 1590 2930 (2020) 1360 (2013) 1870 1380 1430 1460 1880 2150 2190 2690
2026-05-07 10:45 3.10 1560 2930 (2020) 1360 (2013) 1870 1380 1430 1460 1880 2150 2190 2690
2026-05-07 09:45 3.11 1560 2930 (2020) 1360 (2013) 1870 1380 1430 1460 1880 2150 2190 2690
2026-05-07 08:45 3.12 1570 2930 (2020) 1360 (2013) 1870 1380 1430 1460 1880 2150 2190 2690
2026-05-07 07:45 3.17 1610 2930 (2020) 1360 (2013) 1870 1380 1430 1460 1880 2150 2190 2690
2026-05-07 06:45 3.20 1630 2930 (2020) 1360 (2013) 1870 1380 1430 1460 1880 2150 2190 2690
2026-05-07 05:45 3.22 1650 2930 (2020) 1360 (2013) 1870 1380 1430 1460 1880 2150 2190 2690
2026-05-07 04:45 3.19 1630 2930 (2020) 1360 (2013) 1870 1380 1430 1460 1880 2150 2190 2690
2026-05-07 03:45 3.17 1610 2930 (2020) 1360 (2013) 1870 1380 1430 1460 1880 2150 2190 2690
2026-05-07 02:45 3.15 1600 2930 (2020) 1360 (2013) 1870 1380 1430 1460 1880 2150 2190 2690
2026-05-07 01:45 3.12 1570 2930 (2020) 1360 (2013) 1870 1380 1430 1460 1880 2150 2190 2690
2026-05-07 00:45 3.15 1600 2930 (2020) 1360 (2013) 1870 1380 1430 1460 1880 2150 2190 2690
2026-05-06 23:45 3.14 1590 2930 (2020) 1360 (2013) 1870 1380 1430 1460 1880 2150 2190 2690
2026-05-06 22:45 3.12 1570 2900 (2020) 1280 (2023) 1870 1290 1400 1450 1750 2260 2410 2730
2026-05-06 21:45 3.12 1570 2900 (2020) 1280 (2023) 1870 1290 1400 1450 1750 2260 2410 2730
2026-05-06 20:45 3.12 1570 2900 (2020) 1280 (2023) 1870 1290 1400 1450 1750 2260 2410 2730
2026-05-06 19:45 3.15 1600 2900 (2020) 1280 (2023) 1870 1290 1400 1450 1750 2260 2410 2730
2026-05-06 18:45 3.15 1600 2900 (2020) 1280 (2023) 1870 1290 1400 1450 1750 2260 2410 2730
2026-05-06 17:45 3.18 1620 2900 (2020) 1280 (2023) 1870 1290 1400 1450 1750 2260 2410 2730
2026-05-06 16:45 3.18 1620 2900 (2020) 1280 (2023) 1870 1290 1400 1450 1750 2260 2410 2730
2026-05-06 15:45 3.20 1630 2900 (2020) 1280 (2023) 1870 1290 1400 1450 1750 2260 2410 2730
2026-05-06 14:45 3.22 1650 2900 (2020) 1280 (2023) 1870 1290 1400 1450 1750 2260 2410 2730
2026-05-06 13:45 3.23 1660 2900 (2020) 1280 (2023) 1870 1290 1400 1450 1750 2260 2410 2730
2026-05-06 12:45 3.23 1660 2900 (2020) 1280 (2023) 1870 1290 1400 1450 1750 2260 2410 2730
2026-05-06 11:45 3.22 1650 2900 (2020) 1280 (2023) 1870 1290 1400 1450 1750 2260 2410 2730
2026-05-06 10:45 3.22 1650 2900 (2020) 1280 (2023) 1870 1290 1400 1450 1750 2260 2410 2730
2026-05-06 09:45 3.23 1660 2900 (2020) 1280 (2023) 1870 1290 1400 1450 1750 2260 2410 2730
2026-05-06 08:45 3.23 1660 2900 (2020) 1280 (2023) 1870 1290 1400 1450 1750 2260 2410 2730
2026-05-06 07:45 3.25 1680 2900 (2020) 1280 (2023) 1870 1290 1400 1450 1750 2260 2410 2730
2026-05-06 06:45 3.24 1670 2900 (2020) 1280 (2023) 1870 1290 1400 1450 1750 2260 2410 2730
2026-05-06 05:45 3.22 1650 2900 (2020) 1280 (2023) 1870 1290 1400 1450 1750 2260 2410 2730
2026-05-06 04:45 3.21 1640 2900 (2020) 1280 (2023) 1870 1290 1400 1450 1750 2260 2410 2730
2026-05-06 03:45 3.21 1640 2900 (2020) 1280 (2023) 1870 1290 1400 1450 1750 2260 2410 2730
2026-05-06 02:45 3.23 1660 2900 (2020) 1280 (2023) 1870 1290 1400 1450 1750 2260 2410 2730
2026-05-06 01:45 3.26 1680 2900 (2020) 1280 (2023) 1870 1290 1400 1450 1750 2260 2410 2730
2026-05-06 00:45 3.27 1690 2900 (2020) 1280 (2023) 1870 1290 1400 1450 1750 2260 2410 2730
2026-05-05 23:45 3.27 1690 2900 (2020) 1280 (2023) 1870 1290 1400 1450 1750 2260 2410 2730
2026-05-05 22:45 3.29 1710 2780 (2016) 1140 (2013) 1840 1220 1350 1370 1650 2290 2380 2770
2026-05-05 21:45 3.28 1700 2780 (2016) 1140 (2013) 1840 1220 1350 1370 1650 2290 2380 2770
2026-05-05 20:45 3.27 1690 2780 (2016) 1140 (2013) 1840 1220 1350 1370 1650 2290 2380 2770
2026-05-05 19:45 3.27 1690 2780 (2016) 1140 (2013) 1840 1220 1350 1370 1650 2290 2380 2770
2026-05-05 18:45 3.27 1690 2780 (2016) 1140 (2013) 1840 1220 1350 1370 1650 2290 2380 2770
2026-05-05 17:45 3.25 1680 2780 (2016) 1140 (2013) 1840 1220 1350 1370 1650 2290 2380 2770
2026-05-05 16:45 3.24 1670 2780 (2016) 1140 (2013) 1840 1220 1350 1370 1650 2290 2380 2770
2026-05-05 15:45 3.26 1680 2780 (2016) 1140 (2013) 1840 1220 1350 1370 1650 2290 2380 2770
2026-05-05 14:45 3.26 1680 2780 (2016) 1140 (2013) 1840 1220 1350 1370 1650 2290 2380 2770
2026-05-05 13:45 3.29 1710 2780 (2016) 1140 (2013) 1840 1220 1350 1370 1650 2290 2380 2770
2026-05-05 12:45 3.23 1660 2780 (2016) 1140 (2013) 1840 1220 1350 1370 1650 2290 2380 2770
2026-05-05 11:45 3.23 1660 2780 (2016) 1140 (2013) 1840 1220 1350 1370 1650 2290 2380 2770
2026-05-05 11:00 3.20 1630 2780 (2016) 1140 (2013) 1840 1220 1350 1370 1650 2290 2380 2770
2026-05-05 10:45 3.20 1630 2780 (2016) 1140 (2013) 1840 1220 1350 1370 1650 2290 2380 2770
2026-05-05 09:45 3.20 1630 2780 (2016) 1140 (2013) 1840 1220 1350 1370 1650 2290 2380 2770
2026-05-05 08:45 3.25 1680 2780 (2016) 1140 (2013) 1840 1220 1350 1370 1650 2290 2380 2770
2026-05-05 07:45 3.19 1630 2780 (2016) 1140 (2013) 1840 1220 1350 1370 1650 2290 2380 2770
2026-05-05 06:45 3.26 1680 2780 (2016) 1140 (2013) 1840 1220 1350 1370 1650 2290 2380 2770
2026-05-05 05:45 3.26 1680 2780 (2016) 1140 (2013) 1840 1220 1350 1370 1650 2290 2380 2770
2026-05-05 04:45 3.25 1680 2780 (2016) 1140 (2013) 1840 1220 1350 1370 1650 2290 2380 2770
2026-05-05 03:45 3.27 1690 2780 (2016) 1140 (2013) 1840 1220 1350 1370 1650 2290 2380 2770
2026-05-05 02:45 3.25 1680 2780 (2016) 1140 (2013) 1840 1220 1350 1370 1650 2290 2380 2770
2026-05-05 01:45 3.28 1700 2780 (2016) 1140 (2013) 1840 1220 1350 1370 1650 2290 2380 2770
2026-05-05 00:45 3.27 1690 2780 (2016) 1140 (2013) 1840 1220 1350 1370 1650 2290 2380 2770
2026-05-04 23:45 3.28 1700 2780 (2016) 1140 (2013) 1840 1220 1350 1370 1650 2290 2380 2770
2026-05-04 22:45 3.31 1720 3180 (2016) 1320 (2013) 1920 1360 1410 1460 1690 2150 2360 3130
2026-05-04 21:45 3.30 1720 3180 (2016) 1320 (2013) 1920 1360 1410 1460 1690 2150 2360 3130
2026-05-04 20:45 3.32 1730 3180 (2016) 1320 (2013) 1920 1360 1410 1460 1690 2150 2360 3130
2026-05-04 19:45 3.32 1730 3180 (2016) 1320 (2013) 1920 1360 1410 1460 1690 2150 2360 3130
2026-05-04 18:45 3.34 1750 3180 (2016) 1320 (2013) 1920 1360 1410 1460 1690 2150 2360 3130
2026-05-04 17:45 3.32 1730 3180 (2016) 1320 (2013) 1920 1360 1410 1460 1690 2150 2360 3130
2026-05-04 16:45 3.33 1740 3180 (2016) 1320 (2013) 1920 1360 1410 1460 1690 2150 2360 3130
2026-05-04 15:45 3.33 1740 3180 (2016) 1320 (2013) 1920 1360 1410 1460 1690 2150 2360 3130
2026-05-04 14:45 3.36 1770 3180 (2016) 1320 (2013) 1920 1360 1410 1460 1690 2150 2360 3130
2026-05-04 13:45 3.34 1750 3180 (2016) 1320 (2013) 1920 1360 1410 1460 1690 2150 2360 3130
2026-05-04 12:45 3.33 1740 3180 (2016) 1320 (2013) 1920 1360 1410 1460 1690 2150 2360 3130
2026-05-04 11:45 3.32 1730 3180 (2016) 1320 (2013) 1920 1360 1410 1460 1690 2150 2360 3130
2026-05-04 10:45 3.34 1750 3180 (2016) 1320 (2013) 1920 1360 1410 1460 1690 2150 2360 3130
2026-05-04 09:45 3.38 1780 3180 (2016) 1320 (2013) 1920 1360 1410 1460 1690 2150 2360 3130
2026-05-04 08:45 3.38 1780 3180 (2016) 1320 (2013) 1920 1360 1410 1460 1690 2150 2360 3130
2026-05-04 07:45 3.34 1750 3180 (2016) 1320 (2013) 1920 1360 1410 1460 1690 2150 2360 3130
2026-05-04 06:45 3.36 1770 3180 (2016) 1320 (2013) 1920 1360 1410 1460 1690 2150 2360 3130
2026-05-04 05:45 3.37 1780 3180 (2016) 1320 (2013) 1920 1360 1410 1460 1690 2150 2360 3130
2026-05-04 04:45 3.40 1800 3180 (2016) 1320 (2013) 1920 1360 1410 1460 1690 2150 2360 3130
2026-05-04 03:45 3.33 1740 3180 (2016) 1320 (2013) 1920 1360 1410 1460 1690 2150 2360 3130
2026-05-04 02:45 3.27 1690 3180 (2016) 1320 (2013) 1920 1360 1410 1460 1690 2150 2360 3130
2026-05-04 01:45 3.39 1790 3180 (2016) 1320 (2013) 1920 1360 1410 1460 1690 2150 2360 3130
2026-05-04 00:45 3.34 1750 3180 (2016) 1320 (2013) 1920 1360 1410 1460 1690 2150 2360 3130
2026-05-03 23:45 3.36 1770 3180 (2016) 1320 (2013) 1920 1360 1410 1460 1690 2150 2360 3130
2026-05-03 22:45 3.35 1760 3370 (2016) 1220 (2013) 1900 1280 1400 1460 1770 2170 2350 3180
2026-05-03 21:45 3.33 1740 3370 (2016) 1220 (2013) 1900 1280 1400 1460 1770 2170 2350 3180
2026-05-03 20:45 3.31 1720 3370 (2016) 1220 (2013) 1900 1280 1400 1460 1770 2170 2350 3180
2026-05-03 19:45 3.30 1720 3370 (2016) 1220 (2013) 1900 1280 1400 1460 1770 2170 2350 3180
2026-05-03 18:45 3.28 1700 3370 (2016) 1220 (2013) 1900 1280 1400 1460 1770 2170 2350 3180
2026-05-03 17:45 3.32 1730 3370 (2016) 1220 (2013) 1900 1280 1400 1460 1770 2170 2350 3180
2026-05-03 16:45 3.32 1730 3370 (2016) 1220 (2013) 1900 1280 1400 1460 1770 2170 2350 3180
2026-05-03 15:45 3.31 1720 3370 (2016) 1220 (2013) 1900 1280 1400 1460 1770 2170 2350 3180
2026-05-03 14:45 3.34 1750 3370 (2016) 1220 (2013) 1900 1280 1400 1460 1770 2170 2350 3180
2026-05-03 13:45 3.32 1730 3370 (2016) 1220 (2013) 1900 1280 1400 1460 1770 2170 2350 3180
2026-05-03 12:45 3.30 1720 3370 (2016) 1220 (2013) 1900 1280 1400 1460 1770 2170 2350 3180
2026-05-03 11:45 3.32 1730 3370 (2016) 1220 (2013) 1900 1280 1400 1460 1770 2170 2350 3180
2026-05-03 10:45 3.30 1720 3370 (2016) 1220 (2013) 1900 1280 1400 1460 1770 2170 2350 3180
2026-05-03 09:45 3.23 1660 3370 (2016) 1220 (2013) 1900 1280 1400 1460 1770 2170 2350 3180
2026-05-03 08:45 3.22 1650 3370 (2016) 1220 (2013) 1900 1280 1400 1460 1770 2170 2350 3180
2026-05-03 07:45 3.21 1640 3370 (2016) 1220 (2013) 1900 1280 1400 1460 1770 2170 2350 3180
2026-05-03 06:45 3.25 1680 3370 (2016) 1220 (2013) 1900 1280 1400 1460 1770 2170 2350 3180
2026-05-03 05:45 3.24 1670 3370 (2016) 1220 (2013) 1900 1280 1400 1460 1770 2170 2350 3180
2026-05-03 04:45 3.29 1710 3370 (2016) 1220 (2013) 1900 1280 1400 1460 1770 2170 2350 3180
2026-05-03 03:45 3.25 1680 3370 (2016) 1220 (2013) 1900 1280 1400 1460 1770 2170 2350 3180
2026-05-03 02:45 3.27 1690 3370 (2016) 1220 (2013) 1900 1280 1400 1460 1770 2170 2350 3180
2026-05-03 01:45 3.29 1710 3370 (2016) 1220 (2013) 1900 1280 1400 1460 1770 2170 2350 3180
2026-05-03 00:45 3.28 1700 3370 (2016) 1220 (2013) 1900 1280 1400 1460 1770 2170 2350 3180
2026-05-02 23:45 3.26 1680 3370 (2016) 1220 (2013) 1900 1280 1400 1460 1770 2170 2350 3180
2026-05-02 22:45 3.26 1680 3410 (2016) 1420 (2017) 1930 1420 1460 1500 1710 2230 2480 3250
2026-05-02 21:45 3.23 1660 3410 (2016) 1420 (2017) 1930 1420 1460 1500 1710 2230 2480 3250
2026-05-02 20:45 3.21 1640 3410 (2016) 1420 (2017) 1930 1420 1460 1500 1710 2230 2480 3250
2026-05-02 19:45 3.22 1650 3410 (2016) 1420 (2017) 1930 1420 1460 1500 1710 2230 2480 3250
2026-05-02 18:45 3.23 1660 3410 (2016) 1420 (2017) 1930 1420 1460 1500 1710 2230 2480 3250
2026-05-02 17:45 3.26 1680 3410 (2016) 1420 (2017) 1930 1420 1460 1500 1710 2230 2480 3250
2026-05-02 16:45 3.29 1710 3410 (2016) 1420 (2017) 1930 1420 1460 1500 1710 2230 2480 3250
2026-05-02 15:45 3.31 1720 3410 (2016) 1420 (2017) 1930 1420 1460 1500 1710 2230 2480 3250
2026-05-02 14:45 3.31 1720 3410 (2016) 1420 (2017) 1930 1420 1460 1500 1710 2230 2480 3250
2026-05-02 13:45 3.32 1730 3410 (2016) 1420 (2017) 1930 1420 1460 1500 1710 2230 2480 3250
2026-05-02 12:45 3.32 1730 3410 (2016) 1420 (2017) 1930 1420 1460 1500 1710 2230 2480 3250
2026-05-02 11:45 3.29 1710 3410 (2016) 1420 (2017) 1930 1420 1460 1500 1710 2230 2480 3250
2026-05-02 10:45 3.32 1730 3410 (2016) 1420 (2017) 1930 1420 1460 1500 1710 2230 2480 3250
2026-05-02 09:45 3.28 1700 3410 (2016) 1420 (2017) 1930 1420 1460 1500 1710 2230 2480 3250
2026-05-02 08:45 3.27 1690 3410 (2016) 1420 (2017) 1930 1420 1460 1500 1710 2230 2480 3250
2026-05-02 07:45 3.26 1680 3410 (2016) 1420 (2017) 1930 1420 1460 1500 1710 2230 2480 3250
2026-05-02 06:45 3.28 1700 3410 (2016) 1420 (2017) 1930 1420 1460 1500 1710 2230 2480 3250
2026-05-02 05:45 3.32 1730 3410 (2016) 1420 (2017) 1930 1420 1460 1500 1710 2230 2480 3250
2026-05-02 04:45 3.26 1680 3410 (2016) 1420 (2017) 1930 1420 1460 1500 1710 2230 2480 3250
2026-05-02 03:45 3.23 1660 3410 (2016) 1420 (2017) 1930 1420 1460 1500 1710 2230 2480 3250
2026-05-02 02:45 3.22 1650 3410 (2016) 1420 (2017) 1930 1420 1460 1500 1710 2230 2480 3250
2026-05-02 01:45 3.26 1680 3410 (2016) 1420 (2017) 1930 1420 1460 1500 1710 2230 2480 3250
2026-05-02 00:45 3.20 1630 3410 (2016) 1420 (2017) 1930 1420 1460 1500 1710 2230 2480 3250
2026-05-01 23:45 3.23 1660 3410 (2016) 1420 (2017) 1930 1420 1460 1500 1710 2230 2480 3250
2026-05-01 22:45 3.23 1660 2920 (2016) 1420 (2017) 1950 1450 1510 1520 1730 2410 2790 2880
2026-05-01 21:45 3.29 1710 2920 (2016) 1420 (2017) 1950 1450 1510 1520 1730 2410 2790 2880
2026-05-01 20:45 3.19 1630 2920 (2016) 1420 (2017) 1950 1450 1510 1520 1730 2410 2790 2880
2026-05-01 19:45 3.27 1690 2920 (2016) 1420 (2017) 1950 1450 1510 1520 1730 2410 2790 2880
2026-05-01 18:45 3.21 1640 2920 (2016) 1420 (2017) 1950 1450 1510 1520 1730 2410 2790 2880
2026-05-01 17:45 3.19 1630 2920 (2016) 1420 (2017) 1950 1450 1510 1520 1730 2410 2790 2880
2026-05-01 16:45 3.25 1680 2920 (2016) 1420 (2017) 1950 1450 1510 1520 1730 2410 2790 2880
2026-05-01 15:45 3.32 1730 2920 (2016) 1420 (2017) 1950 1450 1510 1520 1730 2410 2790 2880
2026-05-01 14:45 3.31 1720 2920 (2016) 1420 (2017) 1950 1450 1510 1520 1730 2410 2790 2880
2026-05-01 13:45 3.16 1600 2920 (2016) 1420 (2017) 1950 1450 1510 1520 1730 2410 2790 2880
2026-05-01 12:45 3.27 1690 2920 (2016) 1420 (2017) 1950 1450 1510 1520 1730 2410 2790 2880
2026-05-01 11:45 3.24 1670 2920 (2016) 1420 (2017) 1950 1450 1510 1520 1730 2410 2790 2880
2026-05-01 10:45 3.24 1670 2920 (2016) 1420 (2017) 1950 1450 1510 1520 1730 2410 2790 2880
2026-05-01 09:45 3.25 1680 2920 (2016) 1420 (2017) 1950 1450 1510 1520 1730 2410 2790 2880
2026-05-01 08:45 3.34 1750 2920 (2016) 1420 (2017) 1950 1450 1510 1520 1730 2410 2790 2880
2026-05-01 07:45 3.35 1760 2920 (2016) 1420 (2017) 1950 1450 1510 1520 1730 2410 2790 2880
2026-05-01 06:45 3.32 1730 2920 (2016) 1420 (2017) 1950 1450 1510 1520 1730 2410 2790 2880
2026-05-01 05:45 3.28 1700 2920 (2016) 1420 (2017) 1950 1450 1510 1520 1730 2410 2790 2880
2026-05-01 04:45 3.32 1730 2920 (2016) 1420 (2017) 1950 1450 1510 1520 1730 2410 2790 2880
2026-05-01 03:45 3.33 1740 2920 (2016) 1420 (2017) 1950 1450 1510 1520 1730 2410 2790 2880
2026-05-01 02:45 3.33 1740 2920 (2016) 1420 (2017) 1950 1450 1510 1520 1730 2410 2790 2880
2026-05-01 01:45 3.25 1680 2920 (2016) 1420 (2017) 1950 1450 1510 1520 1730 2410 2790 2880
2026-05-01 00:45 3.17 1610 2920 (2016) 1420 (2017) 1950 1450 1510 1520 1730 2410 2790 2880
2026-04-30 23:45 3.10 1560 2920 (2016) 1420 (2017) 1950 1450 1510 1520 1730 2410 2790 2880
2026-04-30 22:45 3.14 1590 2970 (2016) 1380 (2021) 1940 1380 1410 1480 1720 2430 2810 2910
2026-04-30 21:45 3.12 1570 2970 (2016) 1380 (2021) 1940 1380 1410 1480 1720 2430 2810 2910
2026-04-30 20:45 3.06 1530 2970 (2016) 1380 (2021) 1940 1380 1410 1480 1720 2430 2810 2910
2026-04-30 19:45 3.07 1530 2970 (2016) 1380 (2021) 1940 1380 1410 1480 1720 2430 2810 2910
2026-04-30 18:45 3.08 1540 2970 (2016) 1380 (2021) 1940 1380 1410 1480 1720 2430 2810 2910
2026-04-30 17:45 3.23 1660 2970 (2016) 1380 (2021) 1940 1380 1410 1480 1720 2430 2810 2910
2026-04-30 16:45 3.20 1630 2970 (2016) 1380 (2021) 1940 1380 1410 1480 1720 2430 2810 2910
2026-04-30 15:45 3.18 1620 2970 (2016) 1380 (2021) 1940 1380 1410 1480 1720 2430 2810 2910
2026-04-30 14:45 3.20 1630 2970 (2016) 1380 (2021) 1940 1380 1410 1480 1720 2430 2810 2910
2026-04-30 13:45 3.20 1630 2970 (2016) 1380 (2021) 1940 1380 1410 1480 1720 2430 2810 2910
2026-04-30 12:45 3.19 1630 2970 (2016) 1380 (2021) 1940 1380 1410 1480 1720 2430 2810 2910
2026-04-30 11:45 3.20 1630 2970 (2016) 1380 (2021) 1940 1380 1410 1480 1720 2430 2810 2910
2026-04-30 10:45 3.18 1620 2970 (2016) 1380 (2021) 1940 1380 1410 1480 1720 2430 2810 2910
2026-04-30 09:45 3.21 1640 2970 (2016) 1380 (2021) 1940 1380 1410 1480 1720 2430 2810 2910
2026-04-30 08:45 3.21 1640 2970 (2016) 1380 (2021) 1940 1380 1410 1480 1720 2430 2810 2910
2026-04-30 07:45 3.21 1640 2970 (2016) 1380 (2021) 1940 1380 1410 1480 1720 2430 2810 2910
2026-04-30 06:45 3.22 1650 2970 (2016) 1380 (2021) 1940 1380 1410 1480 1720 2430 2810 2910
2026-04-30 05:45 3.22 1650 2970 (2016) 1380 (2021) 1940 1380 1410 1480 1720 2430 2810 2910
2026-04-30 04:45 3.21 1640 2970 (2016) 1380 (2021) 1940 1380 1410 1480 1720 2430 2810 2910
2026-04-30 03:45 3.23 1660 2970 (2016) 1380 (2021) 1940 1380 1410 1480 1720 2430 2810 2910
2026-04-30 02:45 3.24 1670 2970 (2016) 1380 (2021) 1940 1380 1410 1480 1720 2430 2810 2910
2026-04-30 01:45 3.24 1670 2970 (2016) 1380 (2021) 1940 1380 1410 1480 1720 2430 2810 2910
2026-04-30 00:45 3.25 1680 2970 (2016) 1380 (2021) 1940 1380 1410 1480 1720 2430 2810 2910
2026-04-29 23:45 3.21 1640 2970 (2016) 1380 (2021) 1940 1380 1410 1480 1720 2430 2810 2910
2026-04-29 22:45 3.20 1630 2780 (2020) 1410 (2017) 1920 1460 1540 1540 1790 2250 2510 2740
2026-04-29 21:45 3.23 1660 2780 (2020) 1410 (2017) 1920 1460 1540 1540 1790 2250 2510 2740
2026-04-29 20:45 3.26 1680 2780 (2020) 1410 (2017) 1920 1460 1540 1540 1790 2250 2510 2740
2026-04-29 19:45 3.29 1710 2780 (2020) 1410 (2017) 1920 1460 1540 1540 1790 2250 2510 2740
2026-04-29 18:45 3.26 1680 2780 (2020) 1410 (2017) 1920 1460 1540 1540 1790 2250 2510 2740
2026-04-29 17:45 3.24 1670 2780 (2020) 1410 (2017) 1920 1460 1540 1540 1790 2250 2510 2740
2026-04-29 16:45 3.26 1680 2780 (2020) 1410 (2017) 1920 1460 1540 1540 1790 2250 2510 2740
2026-04-29 15:45 3.27 1690 2780 (2020) 1410 (2017) 1920 1460 1540 1540 1790 2250 2510 2740
2026-04-29 14:45 3.26 1680 2780 (2020) 1410 (2017) 1920 1460 1540 1540 1790 2250 2510 2740
2026-04-29 13:45 3.24 1670 2780 (2020) 1410 (2017) 1920 1460 1540 1540 1790 2250 2510 2740
2026-04-29 12:45 3.28 1700 2780 (2020) 1410 (2017) 1920 1460 1540 1540 1790 2250 2510 2740
2026-04-29 11:45 3.29 1710 2780 (2020) 1410 (2017) 1920 1460 1540 1540 1790 2250 2510 2740
2026-04-29 10:45 3.28 1700 2780 (2020) 1410 (2017) 1920 1460 1540 1540 1790 2250 2510 2740
2026-04-29 09:45 3.28 1700 2780 (2020) 1410 (2017) 1920 1460 1540 1540 1790 2250 2510 2740
2026-04-29 08:45 3.28 1700 2780 (2020) 1410 (2017) 1920 1460 1540 1540 1790 2250 2510 2740
2026-04-29 07:45 3.29 1710 2780 (2020) 1410 (2017) 1920 1460 1540 1540 1790 2250 2510 2740
2026-04-29 06:45 3.29 1710 2780 (2020) 1410 (2017) 1920 1460 1540 1540 1790 2250 2510 2740
2026-04-29 05:45 3.27 1690 2780 (2020) 1410 (2017) 1920 1460 1540 1540 1790 2250 2510 2740
2026-04-29 04:45 3.29 1710 2780 (2020) 1410 (2017) 1920 1460 1540 1540 1790 2250 2510 2740
2026-04-29 03:45 3.26 1680 2780 (2020) 1410 (2017) 1920 1460 1540 1540 1790 2250 2510 2740
2026-04-29 02:45 3.26 1680 2780 (2020) 1410 (2017) 1920 1460 1540 1540 1790 2250 2510 2740
2026-04-29 01:45 3.27 1690 2780 (2020) 1410 (2017) 1920 1460 1540 1540 1790 2250 2510 2740
2026-04-29 00:45 3.26 1680 2780 (2020) 1410 (2017) 1920 1460 1540 1540 1790 2250 2510 2740
2026-04-28 23:45 3.27 1690 2780 (2020) 1410 (2017) 1920 1460 1540 1540 1790 2250 2510 2740
2026-04-28 22:45 3.26 1680 2750 (2020) 1390 (2017) 1900 1460 1610 1630 1810 2160 2320 2620
2026-04-28 21:45 3.26 1680 2750 (2020) 1390 (2017) 1900 1460 1610 1630 1810 2160 2320 2620
2026-04-28 20:45 3.26 1680 2750 (2020) 1390 (2017) 1900 1460 1610 1630 1810 2160 2320 2620
2026-04-28 19:45 3.26 1680 2750 (2020) 1390 (2017) 1900 1460 1610 1630 1810 2160 2320 2620
2026-04-28 18:45 3.25 1680 2750 (2020) 1390 (2017) 1900 1460 1610 1630 1810 2160 2320 2620
2026-04-28 17:45 3.24 1670 2750 (2020) 1390 (2017) 1900 1460 1610 1630 1810 2160 2320 2620
2026-04-28 16:45 3.26 1680 2750 (2020) 1390 (2017) 1900 1460 1610 1630 1810 2160 2320 2620
2026-04-28 15:45 3.29 1710 2750 (2020) 1390 (2017) 1900 1460 1610 1630 1810 2160 2320 2620
2026-04-28 14:45 3.27 1690 2750 (2020) 1390 (2017) 1900 1460 1610 1630 1810 2160 2320 2620
2026-04-28 13:45 3.19 1630 2750 (2020) 1390 (2017) 1900 1460 1610 1630 1810 2160 2320 2620
2026-04-28 12:45 3.26 1680 2750 (2020) 1390 (2017) 1900 1460 1610 1630 1810 2160 2320 2620
2026-04-28 11:45 3.27 1690 2750 (2020) 1390 (2017) 1900 1460 1610 1630 1810 2160 2320 2620
2026-04-28 10:45 3.29 1710 2750 (2020) 1390 (2017) 1900 1460 1610 1630 1810 2160 2320 2620
2026-04-28 09:45 3.28 1700 2750 (2020) 1390 (2017) 1900 1460 1610 1630 1810 2160 2320 2620
2026-04-28 08:45 3.30 1720 2750 (2020) 1390 (2017) 1900 1460 1610 1630 1810 2160 2320 2620
2026-04-28 07:45 3.27 1690 2750 (2020) 1390 (2017) 1900 1460 1610 1630 1810 2160 2320 2620
2026-04-28 06:45 3.27 1690 2750 (2020) 1390 (2017) 1900 1460 1610 1630 1810 2160 2320 2620
2026-04-28 05:45 3.32 1730 2750 (2020) 1390 (2017) 1900 1460 1610 1630 1810 2160 2320 2620
2026-04-28 04:45 3.34 1750 2750 (2020) 1390 (2017) 1900 1460 1610 1630 1810 2160 2320 2620
2026-04-28 03:45 3.35 1760 2750 (2020) 1390 (2017) 1900 1460 1610 1630 1810 2160 2320 2620
2026-04-28 02:45 3.30 1720 2750 (2020) 1390 (2017) 1900 1460 1610 1630 1810 2160 2320 2620
2026-04-28 01:45 3.20 1630 2750 (2020) 1390 (2017) 1900 1460 1610 1630 1810 2160 2320 2620
2026-04-28 00:45 3.20 1630 2750 (2020) 1390 (2017) 1900 1460 1610 1630 1810 2160 2320 2620
2026-04-27 23:45 3.19 1630 2750 (2020) 1390 (2017) 1900 1460 1610 1630 1810 2160 2320 2620
2026-04-27 22:45 3.19 1630 2700 (2020) 1340 (2014) 1870 1370 1560 1620 1700 2150 2180 2500
2026-04-27 21:45 3.22 1650 2700 (2020) 1340 (2014) 1870 1370 1560 1620 1700 2150 2180 2500
2026-04-27 20:45 3.24 1670 2700 (2020) 1340 (2014) 1870 1370 1560 1620 1700 2150 2180 2500
2026-04-27 19:45 3.24 1670 2700 (2020) 1340 (2014) 1870 1370 1560 1620 1700 2150 2180 2500
2026-04-27 18:45 3.23 1660 2700 (2020) 1340 (2014) 1870 1370 1560 1620 1700 2150 2180 2500
2026-04-27 17:45 3.22 1650 2700 (2020) 1340 (2014) 1870 1370 1560 1620 1700 2150 2180 2500
2026-04-27 16:45 3.22 1650 2700 (2020) 1340 (2014) 1870 1370 1560 1620 1700 2150 2180 2500
2026-04-27 15:45 3.21 1640 2700 (2020) 1340 (2014) 1870 1370 1560 1620 1700 2150 2180 2500
2026-04-27 14:45 3.24 1670 2700 (2020) 1340 (2014) 1870 1370 1560 1620 1700 2150 2180 2500
2026-04-27 13:45 3.27 1690 2700 (2020) 1340 (2014) 1870 1370 1560 1620 1700 2150 2180 2500
2026-04-27 12:45 3.23 1660 2700 (2020) 1340 (2014) 1870 1370 1560 1620 1700 2150 2180 2500
2026-04-27 11:45 3.21 1640 2700 (2020) 1340 (2014) 1870 1370 1560 1620 1700 2150 2180 2500
2026-04-27 10:45 3.20 1630 2700 (2020) 1340 (2014) 1870 1370 1560 1620 1700 2150 2180 2500
2026-04-27 09:45 3.18 1620 2700 (2020) 1340 (2014) 1870 1370 1560 1620 1700 2150 2180 2500
2026-04-27 08:45 3.16 1600 2700 (2020) 1340 (2014) 1870 1370 1560 1620 1700 2150 2180 2500
2026-04-27 07:45 3.16 1600 2700 (2020) 1340 (2014) 1870 1370 1560 1620 1700 2150 2180 2500
2026-04-27 06:45 3.21 1640 2700 (2020) 1340 (2014) 1870 1370 1560 1620 1700 2150 2180 2500
2026-04-27 05:45 3.25 1680 2700 (2020) 1340 (2014) 1870 1370 1560 1620 1700 2150 2180 2500
2026-04-27 04:45 3.23 1660 2700 (2020) 1340 (2014) 1870 1370 1560 1620 1700 2150 2180 2500
2026-04-27 03:45 3.27 1690 2700 (2020) 1340 (2014) 1870 1370 1560 1620 1700 2150 2180 2500
2026-04-27 02:45 3.30 1720 2700 (2020) 1340 (2014) 1870 1370 1560 1620 1700 2150 2180 2500
2026-04-27 01:45 3.31 1720 2700 (2020) 1340 (2014) 1870 1370 1560 1620 1700 2150 2180 2500
2026-04-27 00:45 3.32 1730 2700 (2020) 1340 (2014) 1870 1370 1560 1620 1700 2150 2180 2500
2026-04-26 23:45 3.32 1730 2700 (2020) 1340 (2014) 1870 1370 1560 1620 1700 2150 2180 2500
2026-04-26 22:45 3.23 1660 2770 (2020) 1280 (2014) 1810 1360 1530 1590 1720 1980 2050 2520
2026-04-26 21:45 3.30 1720 2770 (2020) 1280 (2014) 1810 1360 1530 1590 1720 1980 2050 2520
2026-04-26 20:45 3.16 1600 2770 (2020) 1280 (2014) 1810 1360 1530 1590 1720 1980 2050 2520
2026-04-26 19:45 3.15 1600 2770 (2020) 1280 (2014) 1810 1360 1530 1590 1720 1980 2050 2520
2026-04-26 18:45 3.15 1600 2770 (2020) 1280 (2014) 1810 1360 1530 1590 1720 1980 2050 2520
2026-04-26 17:45 3.11 1560 2770 (2020) 1280 (2014) 1810 1360 1530 1590 1720 1980 2050 2520
2026-04-26 16:45 3.12 1570 2770 (2020) 1280 (2014) 1810 1360 1530 1590 1720 1980 2050 2520
2026-04-26 15:45 3.11 1560 2770 (2020) 1280 (2014) 1810 1360 1530 1590 1720 1980 2050 2520
2026-04-26 14:45 3.05 1520 2770 (2020) 1280 (2014) 1810 1360 1530 1590 1720 1980 2050 2520
2026-04-26 13:45 3.06 1530 2770 (2020) 1280 (2014) 1810 1360 1530 1590 1720 1980 2050 2520
2026-04-26 12:45 3.05 1520 2770 (2020) 1280 (2014) 1810 1360 1530 1590 1720 1980 2050 2520
2026-04-26 11:45 3.08 1540 2770 (2020) 1280 (2014) 1810 1360 1530 1590 1720 1980 2050 2520
2026-04-26 10:45 3.03 1500 2770 (2020) 1280 (2014) 1810 1360 1530 1590 1720 1980 2050 2520
2026-04-26 09:45 3.06 1530 2770 (2020) 1280 (2014) 1810 1360 1530 1590 1720 1980 2050 2520
2026-04-26 08:45 3.08 1540 2770 (2020) 1280 (2014) 1810 1360 1530 1590 1720 1980 2050 2520
2026-04-26 07:45 3.06 1530 2770 (2020) 1280 (2014) 1810 1360 1530 1590 1720 1980 2050 2520
2026-04-26 06:45 3.01 1490 2770 (2020) 1280 (2014) 1810 1360 1530 1590 1720 1980 2050 2520
2026-04-26 05:45 3.10 1560 2770 (2020) 1280 (2014) 1810 1360 1530 1590 1720 1980 2050 2520
2026-04-26 04:45 3.09 1550 2770 (2020) 1280 (2014) 1810 1360 1530 1590 1720 1980 2050 2520
2026-04-26 03:45 3.07 1530 2770 (2020) 1280 (2014) 1810 1360 1530 1590 1720 1980 2050 2520
2026-04-26 02:45 3.08 1540 2770 (2020) 1280 (2014) 1810 1360 1530 1590 1720 1980 2050 2520
2026-04-26 01:45 3.04 1510 2770 (2020) 1280 (2014) 1810 1360 1530 1590 1720 1980 2050 2520
2026-04-26 00:45 2.99 1450 2770 (2020) 1280 (2014) 1810 1360 1530 1590 1720 1980 2050 2520
2026-04-25 23:45 2.99 1450 2770 (2020) 1280 (2014) 1810 1360 1530 1590 1720 1980 2050 2520
2026-04-25 22:45 2.94 1290 2710 (2020) 1190 (2014) 1820 1320 1550 1590 1790 2040 2120 2480
2026-04-25 21:45 2.93 1260 2710 (2020) 1190 (2014) 1820 1320 1550 1590 1790 2040 2120 2480
2026-04-25 20:45 2.96 1350 2710 (2020) 1190 (2014) 1820 1320 1550 1590 1790 2040 2120 2480
2026-04-25 19:45 3.01 1490 2710 (2020) 1190 (2014) 1820 1320 1550 1590 1790 2040 2120 2480
2026-04-25 18:45 3.03 1500 2710 (2020) 1190 (2014) 1820 1320 1550 1590 1790 2040 2120 2480
2026-04-25 17:45 3.03 1500 2710 (2020) 1190 (2014) 1820 1320 1550 1590 1790 2040 2120 2480
2026-04-25 16:45 3.01 1490 2710 (2020) 1190 (2014) 1820 1320 1550 1590 1790 2040 2120 2480
2026-04-25 15:45 3.09 1550 2710 (2020) 1190 (2014) 1820 1320 1550 1590 1790 2040 2120 2480
2026-04-25 14:45 3.04 1510 2710 (2020) 1190 (2014) 1820 1320 1550 1590 1790 2040 2120 2480
2026-04-25 13:45 3.05 1520 2710 (2020) 1190 (2014) 1820 1320 1550 1590 1790 2040 2120 2480
2026-04-25 12:45 3.08 1540 2710 (2020) 1190 (2014) 1820 1320 1550 1590 1790 2040 2120 2480
2026-04-25 11:45 3.06 1530 2710 (2020) 1190 (2014) 1820 1320 1550 1590 1790 2040 2120 2480
2026-04-25 10:45 3.03 1500 2710 (2020) 1190 (2014) 1820 1320 1550 1590 1790 2040 2120 2480
2026-04-25 09:45 3.03 1500 2710 (2020) 1190 (2014) 1820 1320 1550 1590 1790 2040 2120 2480
2026-04-25 08:45 3.00 1480 2710 (2020) 1190 (2014) 1820 1320 1550 1590 1790 2040 2120 2480
2026-04-25 07:45 3.04 1510 2710 (2020) 1190 (2014) 1820 1320 1550 1590 1790 2040 2120 2480
2026-04-25 06:45 3.04 1510 2710 (2020) 1190 (2014) 1820 1320 1550 1590 1790 2040 2120 2480
2026-04-25 05:45 3.08 1540 2710 (2020) 1190 (2014) 1820 1320 1550 1590 1790 2040 2120 2480
2026-04-25 04:45 3.06 1530 2710 (2020) 1190 (2014) 1820 1320 1550 1590 1790 2040 2120 2480
2026-04-25 03:45 3.03 1500 2710 (2020) 1190 (2014) 1820 1320 1550 1590 1790 2040 2120 2480
2026-04-25 02:45 3.03 1500 2710 (2020) 1190 (2014) 1820 1320 1550 1590 1790 2040 2120 2480
2026-04-25 01:45 3.02 1500 2710 (2020) 1190 (2014) 1820 1320 1550 1590 1790 2040 2120 2480
2026-04-25 00:45 3.02 1500 2710 (2020) 1190 (2014) 1820 1320 1550 1590 1790 2040 2120 2480
2026-04-24 23:45 3.00 1480 2710 (2020) 1190 (2014) 1820 1320 1550 1590 1790 2040 2120 2480
2026-04-24 22:45 3.01 1490 2550 (2020) 1300 (2014) 1810 1370 1530 1540 1770 2040 2090 2370
2026-04-24 21:45 3.03 1500 2550 (2020) 1300 (2014) 1810 1370 1530 1540 1770 2040 2090 2370
2026-04-24 20:45 3.00 1480 2550 (2020) 1300 (2014) 1810 1370 1530 1540 1770 2040 2090 2370
2026-04-24 19:45 3.01 1490 2550 (2020) 1300 (2014) 1810 1370 1530 1540 1770 2040 2090 2370
2026-04-24 18:45 3.01 1490 2550 (2020) 1300 (2014) 1810 1370 1530 1540 1770 2040 2090 2370
2026-04-24 17:45 3.01 1490 2550 (2020) 1300 (2014) 1810 1370 1530 1540 1770 2040 2090 2370
2026-04-24 16:45 2.99 1450 2550 (2020) 1300 (2014) 1810 1370 1530 1540 1770 2040 2090 2370
2026-04-24 15:45 3.02 1500 2550 (2020) 1300 (2014) 1810 1370 1530 1540 1770 2040 2090 2370
2026-04-24 14:45 3.01 1490 2550 (2020) 1300 (2014) 1810 1370 1530 1540 1770 2040 2090 2370
2026-04-24 13:45 3.03 1500 2550 (2020) 1300 (2014) 1810 1370 1530 1540 1770 2040 2090 2370
2026-04-24 12:45 3.01 1490 2550 (2020) 1300 (2014) 1810 1370 1530 1540 1770 2040 2090 2370
2026-04-24 11:45 3.01 1490 2550 (2020) 1300 (2014) 1810 1370 1530 1540 1770 2040 2090 2370
2026-04-24 10:45 3.01 1490 2550 (2020) 1300 (2014) 1810 1370 1530 1540 1770 2040 2090 2370
2026-04-24 09:45 2.96 1350 2550 (2020) 1300 (2014) 1810 1370 1530 1540 1770 2040 2090 2370
2026-04-24 08:45 2.91 1200 2550 (2020) 1300 (2014) 1810 1370 1530 1540 1770 2040 2090 2370
2026-04-24 07:45 2.93 1260 2550 (2020) 1300 (2014) 1810 1370 1530 1540 1770 2040 2090 2370
2026-04-24 06:45 2.92 1230 2550 (2020) 1300 (2014) 1810 1370 1530 1540 1770 2040 2090 2370
2026-04-24 05:45 2.92 1230 2550 (2020) 1300 (2014) 1810 1370 1530 1540 1770 2040 2090 2370
2026-04-24 04:45 2.97 1380 2550 (2020) 1300 (2014) 1810 1370 1530 1540 1770 2040 2090 2370
2026-04-24 03:45 2.95 1320 2550 (2020) 1300 (2014) 1810 1370 1530 1540 1770 2040 2090 2370
2026-04-24 02:45 2.93 1260 2550 (2020) 1300 (2014) 1810 1370 1530 1540 1770 2040 2090 2370
2026-04-24 01:45 2.94 1290 2550 (2020) 1300 (2014) 1810 1370 1530 1540 1770 2040 2090 2370
2026-04-24 00:45 2.90 1170 2550 (2020) 1300 (2014) 1810 1370 1530 1540 1770 2040 2090 2370
2026-04-23 23:45 2.89 1140 2550 (2020) 1300 (2014) 1810 1370 1530 1540 1770 2040 2090 2370
2026-04-23 22:45 2.90 1170 2640 (2020) 1340 (2014) 1870 1380 1490 1630 1820 2040 2220 2580
2026-04-23 21:45 2.91 1200 2640 (2020) 1340 (2014) 1870 1380 1490 1630 1820 2040 2220 2580
2026-04-23 20:45 2.93 1260 2640 (2020) 1340 (2014) 1870 1380 1490 1630 1820 2040 2220 2580
2026-04-23 19:45 2.96 1350 2640 (2020) 1340 (2014) 1870 1380 1490 1630 1820 2040 2220 2580
2026-04-23 18:45 2.98 1410 2640 (2020) 1340 (2014) 1870 1380 1490 1630 1820 2040 2220 2580
2026-04-23 17:45 3.01 1490 2640 (2020) 1340 (2014) 1870 1380 1490 1630 1820 2040 2220 2580
2026-04-23 16:45 3.04 1510 2640 (2020) 1340 (2014) 1870 1380 1490 1630 1820 2040 2220 2580
2026-04-23 15:45 3.05 1520 2640 (2020) 1340 (2014) 1870 1380 1490 1630 1820 2040 2220 2580
2026-04-23 14:45 3.04 1510 2640 (2020) 1340 (2014) 1870 1380 1490 1630 1820 2040 2220 2580
2026-04-23 13:45 3.05 1520 2640 (2020) 1340 (2014) 1870 1380 1490 1630 1820 2040 2220 2580
2026-04-23 12:45 3.01 1490 2640 (2020) 1340 (2014) 1870 1380 1490 1630 1820 2040 2220 2580
2026-04-23 11:45 3.06 1530 2640 (2020) 1340 (2014) 1870 1380 1490 1630 1820 2040 2220 2580
2026-04-23 10:45 3.06 1530 2640 (2020) 1340 (2014) 1870 1380 1490 1630 1820 2040 2220 2580
2026-04-23 09:45 3.06 1530 2640 (2020) 1340 (2014) 1870 1380 1490 1630 1820 2040 2220 2580
2026-04-23 08:45 3.09 1550 2640 (2020) 1340 (2014) 1870 1380 1490 1630 1820 2040 2220 2580
2026-04-23 07:45 3.10 1560 2640 (2020) 1340 (2014) 1870 1380 1490 1630 1820 2040 2220 2580
2026-04-23 06:45 3.10 1560 2640 (2020) 1340 (2014) 1870 1380 1490 1630 1820 2040 2220 2580
2026-04-23 05:45 3.10 1560 2640 (2020) 1340 (2014) 1870 1380 1490 1630 1820 2040 2220 2580
2026-04-23 04:45 3.08 1540 2640 (2020) 1340 (2014) 1870 1380 1490 1630 1820 2040 2220 2580
2026-04-23 03:45 3.08 1540 2640 (2020) 1340 (2014) 1870 1380 1490 1630 1820 2040 2220 2580
2026-04-23 02:45 3.07 1530 2640 (2020) 1340 (2014) 1870 1380 1490 1630 1820 2040 2220 2580
2026-04-23 01:45 3.06 1530 2640 (2020) 1340 (2014) 1870 1380 1490 1630 1820 2040 2220 2580
2026-04-23 00:45 3.05 1520 2640 (2020) 1340 (2014) 1870 1380 1490 1630 1820 2040 2220 2580
2026-04-22 23:45 3.01 1490 2640 (2020) 1340 (2014) 1870 1380 1490 1630 1820 2040 2220 2580
2026-04-22 22:45 3.01 1490 2750 (2020) 1250 (2014) 1900 1320 1490 1580 1940 2060 2110 2570
2026-04-22 21:45 3.03 1500 2750 (2020) 1250 (2014) 1900 1320 1490 1580 1940 2060 2110 2570
2026-04-22 20:45 3.01 1490 2750 (2020) 1250 (2014) 1900 1320 1490 1580 1940 2060 2110 2570
2026-04-22 19:45 3.00 1480 2750 (2020) 1250 (2014) 1900 1320 1490 1580 1940 2060 2110 2570
2026-04-22 18:45 2.99 1450 2750 (2020) 1250 (2014) 1900 1320 1490 1580 1940 2060 2110 2570
2026-04-22 17:45 3.01 1490 2750 (2020) 1250 (2014) 1900 1320 1490 1580 1940 2060 2110 2570
2026-04-22 16:45 3.00 1480 2750 (2020) 1250 (2014) 1900 1320 1490 1580 1940 2060 2110 2570
2026-04-22 15:45 2.98 1410 2750 (2020) 1250 (2014) 1900 1320 1490 1580 1940 2060 2110 2570
2026-04-22 14:45 2.98 1410 2750 (2020) 1250 (2014) 1900 1320 1490 1580 1940 2060 2110 2570
2026-04-22 13:45 3.01 1490 2750 (2020) 1250 (2014) 1900 1320 1490 1580 1940 2060 2110 2570
2026-04-22 12:45 3.00 1480 2750 (2020) 1250 (2014) 1900 1320 1490 1580 1940 2060 2110 2570
2026-04-22 11:45 3.05 1520 2750 (2020) 1250 (2014) 1900 1320 1490 1580 1940 2060 2110 2570
2026-04-22 10:45 3.04 1510 2750 (2020) 1250 (2014) 1900 1320 1490 1580 1940 2060 2110 2570
2026-04-22 09:45 3.07 1530 2750 (2020) 1250 (2014) 1900 1320 1490 1580 1940 2060 2110 2570
2026-04-22 08:45 3.13 1580 2750 (2020) 1250 (2014) 1900 1320 1490 1580 1940 2060 2110 2570
2026-04-22 07:45 3.15 1600 2750 (2020) 1250 (2014) 1900 1320 1490 1580 1940 2060 2110 2570
2026-04-22 06:45 3.15 1600 2750 (2020) 1250 (2014) 1900 1320 1490 1580 1940 2060 2110 2570
2026-04-22 05:45 3.14 1590 2750 (2020) 1250 (2014) 1900 1320 1490 1580 1940 2060 2110 2570
2026-04-22 04:45 3.13 1580 2750 (2020) 1250 (2014) 1900 1320 1490 1580 1940 2060 2110 2570
2026-04-22 03:45 3.11 1560 2750 (2020) 1250 (2014) 1900 1320 1490 1580 1940 2060 2110 2570
2026-04-22 02:45 3.07 1530 2750 (2020) 1250 (2014) 1900 1320 1490 1580 1940 2060 2110 2570
2026-04-22 01:45 3.02 1500 2750 (2020) 1250 (2014) 1900 1320 1490 1580 1940 2060 2110 2570
2026-04-22 00:45 3.01 1490 2750 (2020) 1250 (2014) 1900 1320 1490 1580 1940 2060 2110 2570
2026-04-21 23:45 3.01 1490 2750 (2020) 1250 (2014) 1900 1320 1490 1580 1940 2060 2110 2570
2026-04-21 22:45 3.02 1500 2670 (2020) 1170 (2014) 1810 1210 1460 1500 1920 2010 2050 2470
2026-04-21 21:45 3.02 1500 2670 (2020) 1170 (2014) 1810 1210 1460 1500 1920 2010 2050 2470
2026-04-21 20:45 3.03 1500 2670 (2020) 1170 (2014) 1810 1210 1460 1500 1920 2010 2050 2470
2026-04-21 19:45 3.03 1500 2670 (2020) 1170 (2014) 1810 1210 1460 1500 1920 2010 2050 2470
2026-04-21 18:45 3.05 1520 2670 (2020) 1170 (2014) 1810 1210 1460 1500 1920 2010 2050 2470
2026-04-21 17:45 3.07 1530 2670 (2020) 1170 (2014) 1810 1210 1460 1500 1920 2010 2050 2470
2026-04-21 16:45 3.08 1540 2670 (2020) 1170 (2014) 1810 1210 1460 1500 1920 2010 2050 2470
2026-04-21 15:45 3.06 1530 2670 (2020) 1170 (2014) 1810 1210 1460 1500 1920 2010 2050 2470
2026-04-21 14:45 3.08 1540 2670 (2020) 1170 (2014) 1810 1210 1460 1500 1920 2010 2050 2470
2026-04-21 13:45 3.13 1580 2670 (2020) 1170 (2014) 1810 1210 1460 1500 1920 2010 2050 2470
2026-04-21 12:45 3.09 1550 2670 (2020) 1170 (2014) 1810 1210 1460 1500 1920 2010 2050 2470
2026-04-21 11:45 3.13 1580 2670 (2020) 1170 (2014) 1810 1210 1460 1500 1920 2010 2050 2470
2026-04-21 10:45 3.14 1590 2670 (2020) 1170 (2014) 1810 1210 1460 1500 1920 2010 2050 2470
2026-04-21 09:45 3.11 1560 2670 (2020) 1170 (2014) 1810 1210 1460 1500 1920 2010 2050 2470
2026-04-21 08:45 3.08 1540 2670 (2020) 1170 (2014) 1810 1210 1460 1500 1920 2010 2050 2470
2026-04-21 07:45 3.08 1540 2670 (2020) 1170 (2014) 1810 1210 1460 1500 1920 2010 2050 2470
2026-04-21 06:45 3.08 1540 2670 (2020) 1170 (2014) 1810 1210 1460 1500 1920 2010 2050 2470
2026-04-21 05:45 3.09 1550 2670 (2020) 1170 (2014) 1810 1210 1460 1500 1920 2010 2050 2470
2026-04-21 04:45 3.07 1530 2670 (2020) 1170 (2014) 1810 1210 1460 1500 1920 2010 2050 2470
2026-04-21 03:45 3.03 1500 2670 (2020) 1170 (2014) 1810 1210 1460 1500 1920 2010 2050 2470
2026-04-21 02:45 3.04 1510 2670 (2020) 1170 (2014) 1810 1210 1460 1500 1920 2010 2050 2470
2026-04-21 01:45 3.03 1500 2670 (2020) 1170 (2014) 1810 1210 1460 1500 1920 2010 2050 2470
2026-04-21 00:45 3.02 1500 2670 (2020) 1170 (2014) 1810 1210 1460 1500 1920 2010 2050 2470
2026-04-20 23:45 3.03 1500 2670 (2020) 1170 (2014) 1810 1210 1460 1500 1920 2010 2050 2470
2026-04-20 22:45 3.04 1510 2780 (2020) 1150 (2014) 1850 1210 1490 1540 1810 2150 2290 2610
2026-04-20 21:45 3.05 1520 2780 (2020) 1150 (2014) 1850 1210 1490 1540 1810 2150 2290 2610
2026-04-20 20:45 3.02 1500 2780 (2020) 1150 (2014) 1850 1210 1490 1540 1810 2150 2290 2610
2026-04-20 19:45 3.02 1500 2780 (2020) 1150 (2014) 1850 1210 1490 1540 1810 2150 2290 2610
2026-04-20 18:45 3.04 1510 2780 (2020) 1150 (2014) 1850 1210 1490 1540 1810 2150 2290 2610
2026-04-20 17:45 2.98 1410 2780 (2020) 1150 (2014) 1850 1210 1490 1540 1810 2150 2290 2610
2026-04-20 16:45 3.01 1490 2780 (2020) 1150 (2014) 1850 1210 1490 1540 1810 2150 2290 2610
2026-04-20 15:45 3.00 1480 2780 (2020) 1150 (2014) 1850 1210 1490 1540 1810 2150 2290 2610
2026-04-20 14:45 3.00 1480 2780 (2020) 1150 (2014) 1850 1210 1490 1540 1810 2150 2290 2610
2026-04-20 13:45 3.02 1500 2780 (2020) 1150 (2014) 1850 1210 1490 1540 1810 2150 2290 2610
2026-04-20 12:45 3.03 1500 2780 (2020) 1150 (2014) 1850 1210 1490 1540 1810 2150 2290 2610
2026-04-20 11:45 3.05 1520 2780 (2020) 1150 (2014) 1850 1210 1490 1540 1810 2150 2290 2610
2026-04-20 10:45 3.05 1520 2780 (2020) 1150 (2014) 1850 1210 1490 1540 1810 2150 2290 2610
2026-04-20 09:45 3.03 1500 2780 (2020) 1150 (2014) 1850 1210 1490 1540 1810 2150 2290 2610
2026-04-20 08:45 3.07 1530 2780 (2020) 1150 (2014) 1850 1210 1490 1540 1810 2150 2290 2610
2026-04-20 07:45 3.08 1540 2780 (2020) 1150 (2014) 1850 1210 1490 1540 1810 2150 2290 2610
2026-04-20 06:45 3.11 1560 2780 (2020) 1150 (2014) 1850 1210 1490 1540 1810 2150 2290 2610
2026-04-20 05:45 3.12 1570 2780 (2020) 1150 (2014) 1850 1210 1490 1540 1810 2150 2290 2610
2026-04-20 04:45 3.13 1580 2780 (2020) 1150 (2014) 1850 1210 1490 1540 1810 2150 2290 2610
2026-04-20 03:45 3.11 1560 2780 (2020) 1150 (2014) 1850 1210 1490 1540 1810 2150 2290 2610
2026-04-20 02:45 3.08 1540 2780 (2020) 1150 (2014) 1850 1210 1490 1540 1810 2150 2290 2610
2026-04-20 01:45 3.06 1530 2780 (2020) 1150 (2014) 1850 1210 1490 1540 1810 2150 2290 2610
2026-04-20 00:45 3.07 1530 2780 (2020) 1150 (2014) 1850 1210 1490 1540 1810 2150 2290 2610
2026-04-19 23:45 3.05 1520 2780 (2020) 1150 (2014) 1850 1210 1490 1540 1810 2150 2290 2610
2026-04-19 22:45 3.08 1540 2650 (2020) 1080 (2014) 1870 1220 1490 1580 1830 2150 2260 2580
2026-04-19 21:45 3.04 1510 2650 (2020) 1080 (2014) 1870 1220 1490 1580 1830 2150 2260 2580
2026-04-19 20:45 3.05 1520 2650 (2020) 1080 (2014) 1870 1220 1490 1580 1830 2150 2260 2580
2026-04-19 19:45 3.09 1550 2650 (2020) 1080 (2014) 1870 1220 1490 1580 1830 2150 2260 2580
2026-04-19 18:45 3.12 1570 2650 (2020) 1080 (2014) 1870 1220 1490 1580 1830 2150 2260 2580
2026-04-19 17:45 3.10 1560 2650 (2020) 1080 (2014) 1870 1220 1490 1580 1830 2150 2260 2580
2026-04-19 16:45 3.10 1560 2650 (2020) 1080 (2014) 1870 1220 1490 1580 1830 2150 2260 2580
2026-04-19 15:45 3.08 1540 2650 (2020) 1080 (2014) 1870 1220 1490 1580 1830 2150 2260 2580
2026-04-19 14:45 3.05 1520 2650 (2020) 1080 (2014) 1870 1220 1490 1580 1830 2150 2260 2580
2026-04-19 13:45 3.01 1490 2650 (2020) 1080 (2014) 1870 1220 1490 1580 1830 2150 2260 2580
2026-04-19 12:45 3.02 1500 2650 (2020) 1080 (2014) 1870 1220 1490 1580 1830 2150 2260 2580
2026-04-19 11:45 2.98 1410 2650 (2020) 1080 (2014) 1870 1220 1490 1580 1830 2150 2260 2580
2026-04-19 10:45 2.99 1450 2650 (2020) 1080 (2014) 1870 1220 1490 1580 1830 2150 2260 2580
2026-04-19 09:45 2.93 1260 2650 (2020) 1080 (2014) 1870 1220 1490 1580 1830 2150 2260 2580
2026-04-19 08:45 2.91 1200 2650 (2020) 1080 (2014) 1870 1220 1490 1580 1830 2150 2260 2580
2026-04-19 07:45 2.86 1060 2650 (2020) 1080 (2014) 1870 1220 1490 1580 1830 2150 2260 2580
2026-04-19 06:45 2.86 1060 2650 (2020) 1080 (2014) 1870 1220 1490 1580 1830 2150 2260 2580
2026-04-19 05:45 2.82 962 2650 (2020) 1080 (2014) 1870 1220 1490 1580 1830 2150 2260 2580
2026-04-19 04:45 2.79 894 2650 (2020) 1080 (2014) 1870 1220 1490 1580 1830 2150 2260 2580
2026-04-19 03:45 2.75 809 2650 (2020) 1080 (2014) 1870 1220 1490 1580 1830 2150 2260 2580
2026-04-19 02:45 2.77 850 2650 (2020) 1080 (2014) 1870 1220 1490 1580 1830 2150 2260 2580
2026-04-19 01:45 2.78 872 2650 (2020) 1080 (2014) 1870 1220 1490 1580 1830 2150 2260 2580
2026-04-19 00:45 2.76 830 2650 (2020) 1080 (2014) 1870 1220 1490 1580 1830 2150 2260 2580
2026-04-18 23:45 2.80 916 2650 (2020) 1080 (2014) 1870 1220 1490 1580 1830 2150 2260 2580
2026-04-18 22:45 2.79 894 2460 (2020) 1120 (2014) 1820 1280 1590 1620 1860 2030 2090 2310
2026-04-18 21:45 2.80 916 2460 (2020) 1120 (2014) 1820 1280 1590 1620 1860 2030 2090 2310
2026-04-18 20:45 2.82 962 2460 (2020) 1120 (2014) 1820 1280 1590 1620 1860 2030 2090 2310
2026-04-18 19:45 2.83 986 2460 (2020) 1120 (2014) 1820 1280 1590 1620 1860 2030 2090 2310
2026-04-18 18:45 2.83 986 2460 (2020) 1120 (2014) 1820 1280 1590 1620 1860 2030 2090 2310
2026-04-18 17:45 2.93 1260 2460 (2020) 1120 (2014) 1820 1280 1590 1620 1860 2030 2090 2310
2026-04-18 16:45 2.93 1260 2460 (2020) 1120 (2014) 1820 1280 1590 1620 1860 2030 2090 2310
2026-04-18 15:45 2.93 1260 2460 (2020) 1120 (2014) 1820 1280 1590 1620 1860 2030 2090 2310
2026-04-18 14:45 2.93 1260 2460 (2020) 1120 (2014) 1820 1280 1590 1620 1860 2030 2090 2310
2026-04-18 13:45 2.95 1320 2460 (2020) 1120 (2014) 1820 1280 1590 1620 1860 2030 2090 2310
2026-04-18 12:45 2.96 1350 2460 (2020) 1120 (2014) 1820 1280 1590 1620 1860 2030 2090 2310
2026-04-18 11:45 2.96 1350 2460 (2020) 1120 (2014) 1820 1280 1590 1620 1860 2030 2090 2310
2026-04-18 10:45 2.99 1450 2460 (2020) 1120 (2014) 1820 1280 1590 1620 1860 2030 2090 2310
2026-04-18 09:45 3.03 1500 2460 (2020) 1120 (2014) 1820 1280 1590 1620 1860 2030 2090 2310
2026-04-18 08:45 3.01 1490 2460 (2020) 1120 (2014) 1820 1280 1590 1620 1860 2030 2090 2310
2026-04-18 07:45 3.03 1500 2460 (2020) 1120 (2014) 1820 1280 1590 1620 1860 2030 2090 2310
2026-04-18 06:45 3.02 1500 2460 (2020) 1120 (2014) 1820 1280 1590 1620 1860 2030 2090 2310
2026-04-18 05:45 3.03 1500 2460 (2020) 1120 (2014) 1820 1280 1590 1620 1860 2030 2090 2310
2026-04-18 04:45 3.01 1490 2460 (2020) 1120 (2014) 1820 1280 1590 1620 1860 2030 2090 2310
2026-04-18 03:45 3.02 1500 2460 (2020) 1120 (2014) 1820 1280 1590 1620 1860 2030 2090 2310
2026-04-18 02:45 3.08 1540 2460 (2020) 1120 (2014) 1820 1280 1590 1620 1860 2030 2090 2310
2026-04-18 01:45 3.09 1550 2460 (2020) 1120 (2014) 1820 1280 1590 1620 1860 2030 2090 2310
2026-04-18 00:45 3.09 1550 2460 (2020) 1120 (2014) 1820 1280 1590 1620 1860 2030 2090 2310
2026-04-17 23:45 3.09 1550 2460 (2020) 1120 (2014) 1820 1280 1590 1620 1860 2030 2090 2310
2026-04-17 22:45 3.09 1550 2470 (2020) 1170 (2014) 1820 1250 1550 1600 1780 2020 2130 2460
2026-04-17 21:45 3.10 1560 2470 (2020) 1170 (2014) 1820 1250 1550 1600 1780 2020 2130 2460
2026-04-17 20:45 3.13 1580 2470 (2020) 1170 (2014) 1820 1250 1550 1600 1780 2020 2130 2460
2026-04-17 19:45 3.13 1580 2470 (2020) 1170 (2014) 1820 1250 1550 1600 1780 2020 2130 2460
2026-04-17 18:45 3.15 1600 2470 (2020) 1170 (2014) 1820 1250 1550 1600 1780 2020 2130 2460
2026-04-17 17:45 3.13 1580 2470 (2020) 1170 (2014) 1820 1250 1550 1600 1780 2020 2130 2460
2026-04-17 16:45 3.18 1620 2470 (2020) 1170 (2014) 1820 1250 1550 1600 1780 2020 2130 2460
2026-04-17 15:45 3.17 1610 2470 (2020) 1170 (2014) 1820 1250 1550 1600 1780 2020 2130 2460
2026-04-17 14:45 3.14 1590 2470 (2020) 1170 (2014) 1820 1250 1550 1600 1780 2020 2130 2460
2026-04-17 13:45 3.16 1600 2470 (2020) 1170 (2014) 1820 1250 1550 1600 1780 2020 2130 2460
2026-04-17 12:45 3.15 1600 2470 (2020) 1170 (2014) 1820 1250 1550 1600 1780 2020 2130 2460
2026-04-17 11:45 3.13 1580 2470 (2020) 1170 (2014) 1820 1250 1550 1600 1780 2020 2130 2460
2026-04-17 10:45 3.13 1580 2470 (2020) 1170 (2014) 1820 1250 1550 1600 1780 2020 2130 2460
2026-04-17 09:45 3.16 1600 2470 (2020) 1170 (2014) 1820 1250 1550 1600 1780 2020 2130 2460
2026-04-17 08:45 3.17 1610 2470 (2020) 1170 (2014) 1820 1250 1550 1600 1780 2020 2130 2460
2026-04-17 07:45 3.17 1610 2470 (2020) 1170 (2014) 1820 1250 1550 1600 1780 2020 2130 2460
2026-04-17 06:45 3.20 1630 2470 (2020) 1170 (2014) 1820 1250 1550 1600 1780 2020 2130 2460
2026-04-17 05:45 3.21 1640 2470 (2020) 1170 (2014) 1820 1250 1550 1600 1780 2020 2130 2460
2026-04-17 04:45 3.20 1630 2470 (2020) 1170 (2014) 1820 1250 1550 1600 1780 2020 2130 2460
2026-04-17 03:45 3.18 1620 2470 (2020) 1170 (2014) 1820 1250 1550 1600 1780 2020 2130 2460
2026-04-17 02:45 3.19 1630 2470 (2020) 1170 (2014) 1820 1250 1550 1600 1780 2020 2130 2460
2026-04-17 01:45 3.21 1640 2470 (2020) 1170 (2014) 1820 1250 1550 1600 1780 2020 2130 2460
2026-04-17 00:45 3.18 1620 2470 (2020) 1170 (2014) 1820 1250 1550 1600 1780 2020 2130 2460
2026-04-16 23:45 3.17 1610 2470 (2020) 1170 (2014) 1820 1250 1550 1600 1780 2020 2130 2460
2026-04-16 22:45 3.15 1600 2500 (2019) 1110 (2014) 1830 1190 1520 1600 1760 2200 2310 2450
2026-04-16 21:45 3.16 1600 2500 (2019) 1110 (2014) 1830 1190 1520 1600 1760 2200 2310 2450
2026-04-16 20:45 3.13 1580 2500 (2019) 1110 (2014) 1830 1190 1520 1600 1760 2200 2310 2450
2026-04-16 19:45 3.15 1600 2500 (2019) 1110 (2014) 1830 1190 1520 1600 1760 2200 2310 2450
2026-04-16 18:45 3.13 1580 2500 (2019) 1110 (2014) 1830 1190 1520 1600 1760 2200 2310 2450
2026-04-16 17:45 3.12 1570 2500 (2019) 1110 (2014) 1830 1190 1520 1600 1760 2200 2310 2450
2026-04-16 16:45 3.15 1600 2500 (2019) 1110 (2014) 1830 1190 1520 1600 1760 2200 2310 2450
2026-04-16 15:45 3.16 1600 2500 (2019) 1110 (2014) 1830 1190 1520 1600 1760 2200 2310 2450
2026-04-16 14:45 3.19 1630 2500 (2019) 1110 (2014) 1830 1190 1520 1600 1760 2200 2310 2450
2026-04-16 13:45 3.20 1630 2500 (2019) 1110 (2014) 1830 1190 1520 1600 1760 2200 2310 2450
2026-04-16 12:45 3.21 1640 2500 (2019) 1110 (2014) 1830 1190 1520 1600 1760 2200 2310 2450
2026-04-16 11:45 3.23 1660 2500 (2019) 1110 (2014) 1830 1190 1520 1600 1760 2200 2310 2450
2026-04-16 10:45 3.24 1670 2500 (2019) 1110 (2014) 1830 1190 1520 1600 1760 2200 2310 2450
2026-04-16 09:45 3.27 1690 2500 (2019) 1110 (2014) 1830 1190 1520 1600 1760 2200 2310 2450
2026-04-16 08:45 3.29 1710 2500 (2019) 1110 (2014) 1830 1190 1520 1600 1760 2200 2310 2450
2026-04-16 07:45 3.28 1700 2500 (2019) 1110 (2014) 1830 1190 1520 1600 1760 2200 2310 2450
2026-04-16 06:45 3.31 1720 2500 (2019) 1110 (2014) 1830 1190 1520 1600 1760 2200 2310 2450
2026-04-16 05:45 3.31 1720 2500 (2019) 1110 (2014) 1830 1190 1520 1600 1760 2200 2310 2450
2026-04-16 04:45 3.31 1720 2500 (2019) 1110 (2014) 1830 1190 1520 1600 1760 2200 2310 2450
2026-04-16 03:45 3.30 1720 2500 (2019) 1110 (2014) 1830 1190 1520 1600 1760 2200 2310 2450
2026-04-16 02:45 3.29 1710 2500 (2019) 1110 (2014) 1830 1190 1520 1600 1760 2200 2310 2450
2026-04-16 01:45 3.27 1690 2500 (2019) 1110 (2014) 1830 1190 1520 1600 1760 2200 2310 2450
2026-04-16 00:45 3.25 1680 2500 (2019) 1110 (2014) 1830 1190 1520 1600 1760 2200 2310 2450
2026-04-15 23:45 3.22 1650 2500 (2019) 1110 (2014) 1830 1190 1520 1600 1760 2200 2310 2450
2026-04-15 22:45 3.20 1630 2750 (2019) 1280 (2014) 1880 1370 1570 1610 1820 2030 2230 2730
2026-04-15 21:45 3.20 1630 2750 (2019) 1280 (2014) 1880 1370 1570 1610 1820 2030 2230 2730
2026-04-15 20:45 3.20 1630 2750 (2019) 1280 (2014) 1880 1370 1570 1610 1820 2030 2230 2730
2026-04-15 19:45 3.20 1630 2750 (2019) 1280 (2014) 1880 1370 1570 1610 1820 2030 2230 2730
2026-04-15 18:45 3.20 1630 2750 (2019) 1280 (2014) 1880 1370 1570 1610 1820 2030 2230 2730
2026-04-15 17:45 3.19 1630 2750 (2019) 1280 (2014) 1880 1370 1570 1610 1820 2030 2230 2730
2026-04-15 16:45 3.18 1620 2750 (2019) 1280 (2014) 1880 1370 1570 1610 1820 2030 2230 2730
2026-04-15 15:45 3.20 1630 2750 (2019) 1280 (2014) 1880 1370 1570 1610 1820 2030 2230 2730
2026-04-15 14:45 3.21 1640 2750 (2019) 1280 (2014) 1880 1370 1570 1610 1820 2030 2230 2730
2026-04-15 13:45 3.20 1630 2750 (2019) 1280 (2014) 1880 1370 1570 1610 1820 2030 2230 2730
2026-04-15 12:45 3.21 1640 2750 (2019) 1280 (2014) 1880 1370 1570 1610 1820 2030 2230 2730
2026-04-15 11:45 3.20 1630 2750 (2019) 1280 (2014) 1880 1370 1570 1610 1820 2030 2230 2730
2026-04-15 10:45 3.19 1630 2750 (2019) 1280 (2014) 1880 1370 1570 1610 1820 2030 2230 2730
2026-04-15 09:45 3.17 1610 2750 (2019) 1280 (2014) 1880 1370 1570 1610 1820 2030 2230 2730
2026-04-15 08:45 3.16 1600 2750 (2019) 1280 (2014) 1880 1370 1570 1610 1820 2030 2230 2730
2026-04-15 07:45 3.17 1610 2750 (2019) 1280 (2014) 1880 1370 1570 1610 1820 2030 2230 2730
2026-04-15 06:45 3.17 1610 2750 (2019) 1280 (2014) 1880 1370 1570 1610 1820 2030 2230 2730
2026-04-15 05:45 3.16 1600 2750 (2019) 1280 (2014) 1880 1370 1570 1610 1820 2030 2230 2730
2026-04-15 04:45 3.14 1590 2750 (2019) 1280 (2014) 1880 1370 1570 1610 1820 2030 2230 2730
2026-04-15 03:45 3.13 1580 2750 (2019) 1280 (2014) 1880 1370 1570 1610 1820 2030 2230 2730
2026-04-15 02:45 3.14 1590 2750 (2019) 1280 (2014) 1880 1370 1570 1610 1820 2030 2230 2730
2026-04-15 01:45 3.14 1590 2750 (2019) 1280 (2014) 1880 1370 1570 1610 1820 2030 2230 2730
2026-04-15 00:45 3.16 1600 2750 (2019) 1280 (2014) 1880 1370 1570 1610 1820 2030 2230 2730
2026-04-14 23:45 3.17 1610 2750 (2019) 1280 (2014) 1880 1370 1570 1610 1820 2030 2230 2730
2026-04-14 22:45 3.18 1620 2430 (2020) 1300 (2014) 1820 1360 1500 1530 1820 2020 2080 2380
2026-04-14 21:45 3.18 1620 2430 (2020) 1300 (2014) 1820 1360 1500 1530 1820 2020 2080 2380
2026-04-14 20:45 3.18 1620 2430 (2020) 1300 (2014) 1820 1360 1500 1530 1820 2020 2080 2380
2026-04-14 19:45 3.19 1630 2430 (2020) 1300 (2014) 1820 1360 1500 1530 1820 2020 2080 2380
2026-04-14 18:45 3.21 1640 2430 (2020) 1300 (2014) 1820 1360 1500 1530 1820 2020 2080 2380
2026-04-14 17:45 3.25 1680 2430 (2020) 1300 (2014) 1820 1360 1500 1530 1820 2020 2080 2380
2026-04-14 16:45 3.25 1680 2430 (2020) 1300 (2014) 1820 1360 1500 1530 1820 2020 2080 2380
2026-04-14 15:45 3.25 1680 2430 (2020) 1300 (2014) 1820 1360 1500 1530 1820 2020 2080 2380
2026-04-14 14:45 3.24 1670 2430 (2020) 1300 (2014) 1820 1360 1500 1530 1820 2020 2080 2380
2026-04-14 13:45 3.26 1680 2430 (2020) 1300 (2014) 1820 1360 1500 1530 1820 2020 2080 2380
2026-04-14 12:45 3.25 1680 2430 (2020) 1300 (2014) 1820 1360 1500 1530 1820 2020 2080 2380
2026-04-14 11:45 3.23 1660 2430 (2020) 1300 (2014) 1820 1360 1500 1530 1820 2020 2080 2380
2026-04-14 09:45 3.27 1690 2430 (2020) 1300 (2014) 1820 1360 1500 1530 1820 2020 2080 2380
2026-04-14 08:45 3.24 1670 2430 (2020) 1300 (2014) 1820 1360 1500 1530 1820 2020 2080 2380
2026-04-14 07:45 3.27 1690 2430 (2020) 1300 (2014) 1820 1360 1500 1530 1820 2020 2080 2380
2026-04-14 06:45 3.26 1680 2430 (2020) 1300 (2014) 1820 1360 1500 1530 1820 2020 2080 2380
2026-04-14 05:45 3.27 1690 2430 (2020) 1300 (2014) 1820 1360 1500 1530 1820 2020 2080 2380
2026-04-14 04:45 3.26 1680 2430 (2020) 1300 (2014) 1820 1360 1500 1530 1820 2020 2080 2380
2026-04-14 03:45 3.26 1680 2430 (2020) 1300 (2014) 1820 1360 1500 1530 1820 2020 2080 2380
2026-04-14 02:45 3.27 1690 2430 (2020) 1300 (2014) 1820 1360 1500 1530 1820 2020 2080 2380
2026-04-14 01:45 3.26 1680 2430 (2020) 1300 (2014) 1820 1360 1500 1530 1820 2020 2080 2380
2026-04-14 00:45 3.26 1680 2430 (2020) 1300 (2014) 1820 1360 1500 1530 1820 2020 2080 2380
2026-04-13 23:45 3.26 1680 2430 (2020) 1300 (2014) 1820 1360 1500 1530 1820 2020 2080 2380
2026-04-13 22:45 3.24 1670 2450 (2020) 1340 (2016) 1820 1370 1500 1530 1810 2100 2130 2330
2026-04-13 21:45 3.25 1680 2450 (2020) 1340 (2016) 1820 1370 1500 1530 1810 2100 2130 2330
2026-04-13 20:45 3.23 1660 2450 (2020) 1340 (2016) 1820 1370 1500 1530 1810 2100 2130 2330
2026-04-13 19:45 3.25 1680 2450 (2020) 1340 (2016) 1820 1370 1500 1530 1810 2100 2130 2330
2026-04-13 18:45 3.25 1680 2450 (2020) 1340 (2016) 1820 1370 1500 1530 1810 2100 2130 2330
2026-04-13 17:45 3.28 1700 2450 (2020) 1340 (2016) 1820 1370 1500 1530 1810 2100 2130 2330
2026-04-13 16:45 3.28 1700 2450 (2020) 1340 (2016) 1820 1370 1500 1530 1810 2100 2130 2330
2026-04-13 15:45 3.27 1690 2450 (2020) 1340 (2016) 1820 1370 1500 1530 1810 2100 2130 2330
2026-04-13 14:45 3.28 1700 2450 (2020) 1340 (2016) 1820 1370 1500 1530 1810 2100 2130 2330
2026-04-13 13:45 3.27 1690 2450 (2020) 1340 (2016) 1820 1370 1500 1530 1810 2100 2130 2330
2026-04-13 12:45 3.24 1670 2450 (2020) 1340 (2016) 1820 1370 1500 1530 1810 2100 2130 2330
2026-04-13 11:45 3.24 1670 2450 (2020) 1340 (2016) 1820 1370 1500 1530 1810 2100 2130 2330
2026-04-13 10:45 3.26 1680 2450 (2020) 1340 (2016) 1820 1370 1500 1530 1810 2100 2130 2330
2026-04-13 09:45 3.26 1680 2450 (2020) 1340 (2016) 1820 1370 1500 1530 1810 2100 2130 2330
2026-04-13 08:45 3.23 1660 2450 (2020) 1340 (2016) 1820 1370 1500 1530 1810 2100 2130 2330
2026-04-13 08:30 3.24 1670 2450 (2020) 1340 (2016) 1820 1370 1500 1530 1810 2100 2130 2330
2026-04-13 07:45 3.27 1690 2450 (2020) 1340 (2016) 1820 1370 1500 1530 1810 2100 2130 2330
2026-04-13 06:45 3.26 1680 2450 (2020) 1340 (2016) 1820 1370 1500 1530 1810 2100 2130 2330
2026-04-13 05:45 3.23 1660 2450 (2020) 1340 (2016) 1820 1370 1500 1530 1810 2100 2130 2330
2026-04-13 04:45 3.22 1650 2450 (2020) 1340 (2016) 1820 1370 1500 1530 1810 2100 2130 2330
2026-04-13 03:45 3.23 1660 2450 (2020) 1340 (2016) 1820 1370 1500 1530 1810 2100 2130 2330
2026-04-13 02:45 3.22 1650 2450 (2020) 1340 (2016) 1820 1370 1500 1530 1810 2100 2130 2330
2026-04-13 01:45 3.22 1650 2450 (2020) 1340 (2016) 1820 1370 1500 1530 1810 2100 2130 2330
2026-04-13 00:45 3.20 1630 2450 (2020) 1340 (2016) 1820 1370 1500 1530 1810 2100 2130 2330
2026-04-12 23:45 3.18 1620 2450 (2020) 1340 (2016) 1820 1370 1500 1530 1810 2100 2130 2330
2026-04-12 22:45 3.19 1630 2450 (2020) 1250 (2013) 1790 1280 1400 1450 1800 2020 2090 2400
2026-04-12 21:45 3.21 1640 2450 (2020) 1250 (2013) 1790 1280 1400 1450 1800 2020 2090 2400
2026-04-12 20:45 3.20 1630 2450 (2020) 1250 (2013) 1790 1280 1400 1450 1800 2020 2090 2400
2026-04-12 19:45 3.22 1650 2450 (2020) 1250 (2013) 1790 1280 1400 1450 1800 2020 2090 2400
2026-04-12 18:45 3.22 1650 2450 (2020) 1250 (2013) 1790 1280 1400 1450 1800 2020 2090 2400
2026-04-12 17:45 3.21 1640 2450 (2020) 1250 (2013) 1790 1280 1400 1450 1800 2020 2090 2400
2026-04-12 16:45 3.22 1650 2450 (2020) 1250 (2013) 1790 1280 1400 1450 1800 2020 2090 2400
2026-04-12 15:45 3.21 1640 2450 (2020) 1250 (2013) 1790 1280 1400 1450 1800 2020 2090 2400
2026-04-12 14:45 3.20 1630 2450 (2020) 1250 (2013) 1790 1280 1400 1450 1800 2020 2090 2400
2026-04-12 13:45 3.17 1610 2450 (2020) 1250 (2013) 1790 1280 1400 1450 1800 2020 2090 2400
2026-04-12 12:45 3.14 1590 2450 (2020) 1250 (2013) 1790 1280 1400 1450 1800 2020 2090 2400
2026-04-12 11:45 3.15 1600 2450 (2020) 1250 (2013) 1790 1280 1400 1450 1800 2020 2090 2400
2026-04-12 10:45 3.16 1600 2450 (2020) 1250 (2013) 1790 1280 1400 1450 1800 2020 2090 2400
2026-04-12 09:45 3.16 1600 2450 (2020) 1250 (2013) 1790 1280 1400 1450 1800 2020 2090 2400
2026-04-12 08:45 3.17 1610 2450 (2020) 1250 (2013) 1790 1280 1400 1450 1800 2020 2090 2400
2026-04-12 07:45 3.22 1650 2450 (2020) 1250 (2013) 1790 1280 1400 1450 1800 2020 2090 2400
2026-04-12 06:45 3.23 1660 2450 (2020) 1250 (2013) 1790 1280 1400 1450 1800 2020 2090 2400
2026-04-12 05:45 3.19 1630 2450 (2020) 1250 (2013) 1790 1280 1400 1450 1800 2020 2090 2400
2026-04-12 04:45 3.20 1630 2450 (2020) 1250 (2013) 1790 1280 1400 1450 1800 2020 2090 2400
2026-04-12 03:45 3.16 1600 2450 (2020) 1250 (2013) 1790 1280 1400 1450 1800 2020 2090 2400
2026-04-12 02:45 3.16 1600 2450 (2020) 1250 (2013) 1790 1280 1400 1450 1800 2020 2090 2400
2026-04-12 01:45 3.13 1580 2450 (2020) 1250 (2013) 1790 1280 1400 1450 1800 2020 2090 2400
2026-04-12 00:45 3.14 1590 2450 (2020) 1250 (2013) 1790 1280 1400 1450 1800 2020 2090 2400
2026-04-11 23:45 3.13 1580 2450 (2020) 1250 (2013) 1790 1280 1400 1450 1800 2020 2090 2400
2026-04-11 22:45 3.11 1560 2450 (2020) 1300 (2014) 1790 1320 1460 1590 1830 1960 2020 2320
2026-04-11 21:45 3.13 1580 2450 (2020) 1300 (2014) 1790 1320 1460 1590 1830 1960 2020 2320
2026-04-11 20:45 3.12 1570 2450 (2020) 1300 (2014) 1790 1320 1460 1590 1830 1960 2020 2320
2026-04-11 19:45 3.07 1530 2450 (2020) 1300 (2014) 1790 1320 1460 1590 1830 1960 2020 2320
2026-04-11 18:45 3.02 1500 2450 (2020) 1300 (2014) 1790 1320 1460 1590 1830 1960 2020 2320
2026-04-11 17:45 3.03 1500 2450 (2020) 1300 (2014) 1790 1320 1460 1590 1830 1960 2020 2320
2026-04-11 16:45 3.04 1510 2450 (2020) 1300 (2014) 1790 1320 1460 1590 1830 1960 2020 2320
2026-04-11 15:45 3.02 1500 2450 (2020) 1300 (2014) 1790 1320 1460 1590 1830 1960 2020 2320
2026-04-11 14:45 3.00 1480 2450 (2020) 1300 (2014) 1790 1320 1460 1590 1830 1960 2020 2320
2026-04-11 13:45 3.05 1520 2450 (2020) 1300 (2014) 1790 1320 1460 1590 1830 1960 2020 2320
2026-04-11 12:45 3.00 1480 2450 (2020) 1300 (2014) 1790 1320 1460 1590 1830 1960 2020 2320
2026-04-11 11:45 3.02 1500 2450 (2020) 1300 (2014) 1790 1320 1460 1590 1830 1960 2020 2320
2026-04-11 10:45 3.01 1490 2450 (2020) 1300 (2014) 1790 1320 1460 1590 1830 1960 2020 2320
2026-04-11 09:45 2.97 1380 2450 (2020) 1300 (2014) 1790 1320 1460 1590 1830 1960 2020 2320
2026-04-11 08:45 3.04 1510 2450 (2020) 1300 (2014) 1790 1320 1460 1590 1830 1960 2020 2320
2026-04-11 07:45 3.01 1490 2450 (2020) 1300 (2014) 1790 1320 1460 1590 1830 1960 2020 2320
2026-04-11 06:45 2.99 1450 2450 (2020) 1300 (2014) 1790 1320 1460 1590 1830 1960 2020 2320
2026-04-11 05:45 3.05 1520 2450 (2020) 1300 (2014) 1790 1320 1460 1590 1830 1960 2020 2320
2026-04-11 04:45 3.05 1520 2450 (2020) 1300 (2014) 1790 1320 1460 1590 1830 1960 2020 2320
2026-04-11 03:45 2.96 1350 2450 (2020) 1300 (2014) 1790 1320 1460 1590 1830 1960 2020 2320
2026-04-11 02:45 2.99 1450 2450 (2020) 1300 (2014) 1790 1320 1460 1590 1830 1960 2020 2320
2026-04-11 01:45 2.95 1320 2450 (2020) 1300 (2014) 1790 1320 1460 1590 1830 1960 2020 2320
2026-04-11 00:45 2.95 1320 2450 (2020) 1300 (2014) 1790 1320 1460 1590 1830 1960 2020 2320
2026-04-10 23:45 2.94 1290 2450 (2020) 1300 (2014) 1790 1320 1460 1590 1830 1960 2020 2320
2026-04-10 22:45 3.01 1490 2430 (2020) 1350 (2016) 1880 1360 1480 1530 1880 2220 2350 2420
2026-04-10 21:45 3.02 1500 2430 (2020) 1350 (2016) 1880 1360 1480 1530 1880 2220 2350 2420
2026-04-10 20:45 2.97 1380 2430 (2020) 1350 (2016) 1880 1360 1480 1530 1880 2220 2350 2420
2026-04-10 19:45 3.05 1520 2430 (2020) 1350 (2016) 1880 1360 1480 1530 1880 2220 2350 2420
2026-04-10 18:45 2.96 1350 2430 (2020) 1350 (2016) 1880 1360 1480 1530 1880 2220 2350 2420
2026-04-10 17:45 2.98 1410 2430 (2020) 1350 (2016) 1880 1360 1480 1530 1880 2220 2350 2420
2026-04-10 16:45 3.00 1480 2430 (2020) 1350 (2016) 1880 1360 1480 1530 1880 2220 2350 2420
2026-04-10 15:45 3.02 1500 2430 (2020) 1350 (2016) 1880 1360 1480 1530 1880 2220 2350 2420
2026-04-10 14:45 2.98 1410 2430 (2020) 1350 (2016) 1880 1360 1480 1530 1880 2220 2350 2420
2026-04-10 13:45 2.99 1450 2430 (2020) 1350 (2016) 1880 1360 1480 1530 1880 2220 2350 2420
2026-04-10 12:45 3.01 1490 2430 (2020) 1350 (2016) 1880 1360 1480 1530 1880 2220 2350 2420
2026-04-10 11:45 2.99 1450 2430 (2020) 1350 (2016) 1880 1360 1480 1530 1880 2220 2350 2420
2026-04-10 10:45 2.96 1350 2430 (2020) 1350 (2016) 1880 1360 1480 1530 1880 2220 2350 2420
2026-04-10 09:45 2.92 1230 2430 (2020) 1350 (2016) 1880 1360 1480 1530 1880 2220 2350 2420
2026-04-10 08:45 3.02 1500 2430 (2020) 1350 (2016) 1880 1360 1480 1530 1880 2220 2350 2420
2026-04-10 07:45 2.99 1450 2430 (2020) 1350 (2016) 1880 1360 1480 1530 1880 2220 2350 2420
2026-04-10 06:45 2.97 1380 2430 (2020) 1350 (2016) 1880 1360 1480 1530 1880 2220 2350 2420
2026-04-10 05:45 3.00 1480 2430 (2020) 1350 (2016) 1880 1360 1480 1530 1880 2220 2350 2420
2026-04-10 04:45 2.94 1290 2430 (2020) 1350 (2016) 1880 1360 1480 1530 1880 2220 2350 2420
2026-04-10 03:45 3.01 1490 2430 (2020) 1350 (2016) 1880 1360 1480 1530 1880 2220 2350 2420
2026-04-10 02:45 2.98 1410 2430 (2020) 1350 (2016) 1880 1360 1480 1530 1880 2220 2350 2420
2026-04-10 01:45 3.03 1500 2430 (2020) 1350 (2016) 1880 1360 1480 1530 1880 2220 2350 2420
2026-04-10 00:45 3.04 1510 2430 (2020) 1350 (2016) 1880 1360 1480 1530 1880 2220 2350 2420
2026-04-09 23:45 3.06 1530 2430 (2020) 1350 (2016) 1880 1360 1480 1530 1880 2220 2350 2420

A total of 734 rows are displayed for years 2013 through 2025.